                ,  0.290,  0.386,  0.483,  0.580,  0.676,  0.773,  0.869,  0.966,  1.063,  1.159,  1.256,  1.352,  1.449,  1.545,  1.642,  1.739,  1.835,  1.932,  2.028,  2.125,  2.222,  2.318,  2.415,  2.511,  2.608,  2.705,  2.801,  2.898,  2.994,  3.091,  3.188,  3.284,  3.381,  3.477,  3.574,  3.671,  3.767,  3.864,  3.960,  4.057,  4.153,  4.250,  4.347,  4.443,  4.540,  4.636,  4.733,  4.830,  4.926,  5.023,  5.119,  5.216,  5.313,  5.409,  5.506,  5.602,  5.699,  5.796
2001/03/24 00:00,  999.0,   -0.0,   -0.3,    0.4,    1.1,    0.2,   -0.0,   -0.9,   -4.7,   -5.2,   -4.6,   -3.7,   -2.0,   -1.0,    0.3,    1.8,    0.8,    2.2,  999.0,  999.0,    1.6,  999.0,  999.0,  999.0,  999.0,  999.0,  999.0,  999.0,  999.0,  999.0,  999.0,  999.0,  999.0,    4.0,  999.0,  999.0,  999.0,  999.0,  999.0,  999.0,  999.0,  999.0,  999.0,  999.0,  999.0,  999.0,  999.0,  999.0,  999.0,  999.0,  999.0,  999.0,  999.0,  999.0,  999.0,  999.0,  999.0,  999.0
2001/03/24 00:10,  999.0,    0.9,    0.5,    1.4,    0.8,    0.9,   -0.5,   -3.7,   -7.2,   -8.6,   -7.5,   -6.1,   -4.7,   -1.9,   -0.1,    0.9,    1.2,    1.7,  999.0,  999.0,  999.0,  999.0,  999.0,  999.0,  999.0,  999.0,  999.0,  999.0,  999.0,  999.0,  999.0,  999.0,  999.0,    2.6,  999.0,  999.0,  999.0,  999.0,  999.0,  999.0,  999.0,  999.0,  999.0,  999.0,  999.0,  999.0,  999.0,  999.0,  999.0,  999.0,  999.0,  999.0,  999.0,  999.0,  999.0,  999.0,  999.0,  999.0
2001/03/24 00:20,  999.0,   -0.4,    0.4,    1.1,   -0.2,   -0.0,   -1.4,   -4.3,   -5.5,   -5.5,   -7.0,   -5.9,   -3.8,   -2.0,   -0.8,    0.1,    1.1,    1.6,  999.0,  999.0,  999.0,  999.0,  999.0,  999.0,  999.0,  999.0,  999.0,  999.0,  999.0,  999.0,  999.0,  999.0,  999.0,  999.0,  999.0,  999.0,  999.0,  999.0,  999.0,  999.0,  999.0,  999.0,  999.0,  999.0,  999.0,  999.0,  999.0,  999.0,  999.0,  999.0,  999.0,  999.0,  999.0,  999.0,  999.0,  999.0,  999.0,  999.0
2001/03/24 00:30,  999.0,   -1.4,    1.4,    1.2,    0.2,    0.0,   -1.7,   -3.9,   -3.7,   -4.2,   -5.0,   -5.6,   -3.5,   -1.8,   -0.7,    0.8,    0.2,    3.0,  999.0,  999.0,  999.0,  999.0,  999.0,  999.0,  999.0,  999.0,  999.0,  999.0,  999.0,  999.0,  999.0,  999.0,  999.0,  999.0,  999.0,  999.0,  999.0,  999.0,  999.0,  999.0,  999.0,  999.0,  999.0,  999.0,  999.0,  999.0,  999.0,  999.0,  999.0,  999.0,  999.0,  999.0,  999.0,  999.0,  999.0,  999.0,  999.0,  999.0
2001/03/24 00:40,  999.0,   -1.8,   -1.7,    0.8,    1.1,    0.8,    0.1,   -3.2,   -4.7,   -3.0,   -3.1,   -2.6,   -1.8,   -1.5,   -0.6,    0.2,    0.3,  999.0,  999.0,  999.0,  999.0,  999.0,  999.0,  999.0,  999.0,  999.0,  999.0,  999.0,  999.0,  999.0,  999.0,  999.0,  999.0,  999.0,  999.0,  999.0,  999.0,  999.0,  999.0,  999.0,  999.0,  999.0,  999.0,  999.0,  999.0,  999.0,  999.0,  999.0,  999.0,  999.0,  999.0,  999.0,  999.0,  999.0,  999.0,  999.0,  999.0,  999.0
2001/03/24 00:50,  999.0,    0.5,    1.0,    1.1,    0.5,   -1.1,   -1.3,   -2.7,   -2.0,   -2.2,   -2.0,   -1.7,   -0.8,   -0.1,    0.9,    1.9,  999.0,  999.0,  999.0,  999.0,  999.0,  999.0,  999.0,  999.0,  999.0,  999.0,  999.0,  999.0,  999.0,  999.0,  999.0,  999.0,  999.0,  999.0,  999.0,  999.0,  999.0,  999.0,  999.0,  999.0,  999.0,  999.0,  999.0,  999.0,  999.0,  999.0,  999.0,  999.0,  999.0,  999.0,  999.0,  999.0,  999.0,  999.0,  999.0,  999.0,  999.0,  999.0
2001/03/24 01:00,  999.0,    1.0,    1.2,    2.3,    1.6,    0.6,   -0.0,   -0.2,    1.4,    0.1,    0.9,    0.8,    0.2,    0.7,    0.4,    0.8,    1.8,  999.0,  999.0,  999.0,  999.0,  999.0,  999.0,  999.0,  999.0,  999.0,  999.0,  999.0,  999.0,  999.0,    2.3,  999.0,  999.0,  999.0,  999.0,  999.0,  999.0,  999.0,  999.0,  999.0,  999.0,  999.0,  999.0,  999.0,  999.0,  999.0,  999.0,  999.0,  999.0,  999.0,  999.0,  999.0,  999.0,  999.0,  999.0,  999.0,  999.0,  999.0
2001/03/24 01:10,  999.0,   -0.3,   -0.0,    3.4,    1.9,    0.2,   -4.4,   -0.5,    0.5,    1.2,    1.8,    1.4,    1.3,    1.4,    1.1,    1.9,    2.4,    3.0,  999.0,  999.0,  999.0,  999.0,  999.0,  999.0,  999.0,  999.0,  999.0,  999.0,  999.0,  999.0,  999.0,  999.0,  999.0,  999.0,  999.0,  999.0,  999.0,  999.0,  999.0,  999.0,  999.0,    3.3,  999.0,  999.0,  999.0,  999.0,  999.0,  999.0,  999.0,  999.0,  999.0,  999.0,  999.0,  999.0,  999.0,  999.0,  999.0,  999.0
2001/03/24 01:20,  999.0,    1.2,    1.1,    2.2,    2.2,    0.6,   -0.8,    0.0,    0.4,    2.1,    2.3,    1.4,    0.9,    1.0,    2.4,    3.6,    3.0,    3.3,  999.0,  999.0,  999.0,  999.0,  999.0,  999.0,  999.0,  999.0,  999.0,  999.0,  999.0,  999.0,  999.0,  999.0,  999.0,  999.0,  999.0,  999.0,  999.0,  999.0,  999.0,  999.0,  999.0,  999.0,  999.0,  999.0,  999.0,  999.0,  999.0,  999.0,  999.0,  999.0,  999.0,  999.0,  999.0,  999.0,  999.0,  999.0,  999.0,  999.0
2001/03/24 01:30,  999.0,   -0.0,    0.7,    1.6,    2.1,    1.3,    2.3,    2.8,    2.2,    4.0,    2.3,    2.0,    2.0,    2.5,    2.7,    2.6,    2.4,    2.5,  999.0,    2.7,  999.0,    1.1,  999.0,  999.0,  999.0,  999.0,  999.0,  999.0,  999.0,  999.0,    0.6,  999.0,  999.0,  999.0,  999.0,  999.0,  999.0,  999.0,  999.0,  999.0,  999.0,  999.0,  999.0,  999.0,  999.0,  999.0,  999.0,  999.0,  999.0,  999.0,  999.0,  999.0,  999.0,  999.0,  999.0,  999.0,  999.0,  999.0
2001/03/24 01:40,  999.0,    2.0,    2.2,    3.3,    4.0,    4.0,    4.5,    5.1,    5.0,    4.7,    3.2,    2.4,    1.8,    2.5,    3.2,    2.0,    1.1,  999.0,  999.0,  999.0,  999.0,  999.0,  999.0,  999.0,  999.0,  999.0,  999.0,  999.0,  999.0,  999.0,  999.0,  999.0,  999.0,  999.0,  999.0,  999.0,  999.0,  999.0,  999.0,  999.0,  999.0,  999.0,  999.0,  999.0,  999.0,  999.0,  999.0,  999.0,  999.0,  999.0,  999.0,  999.0,  999.0,  999.0,  999.0,  999.0,  999.0,  999.0
2001/03/24 01:50,  999.0,  999.0,    2.8,    4.4,    3.0,    1.9,    2.3,    2.8,    2.9,    3.2,    4.1,    3.9,    3.7,    3.5,    2.6,    2.7,    2.3,    1.6,  999.0,  999.0,  999.0,  999.0,  999.0,  999.0,  999.0,  999.0,  999.0,  999.0,  999.0,  999.0,  999.0,  999.0,  999.0,  999.0,  999.0,  999.0,  999.0,  999.0,  999.0,  999.0,  999.0,  999.0,  999.0,  999.0,  999.0,  999.0,  999.0,  999.0,  999.0,  999.0,  999.0,  999.0,  999.0,  999.0,  999.0,  999.0,  999.0,  999.0
2001/03/24 02:00,  999.0,  999.0,    2.6,    4.7,    2.2,    2.5,    2.9,    1.9,    1.8,    2.8,    2.6,    2.1,    0.1,    1.9,    1.8,    1.4,    0.8,    0.9,  999.0,  999.0,  999.0,  999.0,  999.0,  999.0,  999.0,  999.0,  999.0,  999.0,  999.0,  999.0,  999.0,  999.0,  999.0,  999.0,  999.0,  999.0,  999.0,  999.0,  999.0,  999.0,  999.0,  999.0,  999.0,  999.0,  999.0,  999.0,  999.0,  999.0,  999.0,  999.0,  999.0,  999.0,  999.0,  999.0,  999.0,  999.0,  999.0,  999.0
2001/03/24 02:10,  999.0,    0.4,   -0.7,    0.7,    2.4,    2.6,    3.3,    3.3,    3.5,    3.1,    2.4,    2.3,    1.2,    2.0,    1.2,    1.7,    1.1,  999.0,  999.0,    2.0,  999.0,  999.0,  999.0,  999.0,  999.0,  999.0,  999.0,  999.0,  999.0,  999.0,  999.0,  999.0,  999.0,  999.0,  999.0,  999.0,  999.0,  999.0,  999.0,  999.0,  999.0,  999.0,  999.0,  999.0,  999.0,  999.0,  999.0,  999.0,  999.0,  999.0,  999.0,  999.0,  999.0,  999.0,  999.0,  999.0,  999.0,  999.0
2001/03/24 02:20,  999.0,    2.6,   -0.5,    1.8,    2.3,    2.2,    2.9,    2.7,    2.7,    2.4,    1.5,    1.1,    1.6,    1.5,    1.1,    1.7,    1.5,    0.9,  999.0,    2.5,  999.0,  999.0,  999.0,  999.0,  999.0,  999.0,  999.0,  999.0,  999.0,  999.0,  999.0,  999.0,  999.0,  999.0,  999.0,  999.0,  999.0,  999.0,  999.0,  999.0,  999.0,  999.0,  999.0,  999.0,  999.0,  999.0,  999.0,  999.0,  999.0,  999.0,  999.0,  999.0,  999.0,  999.0,  999.0,  999.0,  999.0,  999.0
2001/03/24 02:30,  999.0,  999.0,    0.9,    1.1,    1.3,    2.0,    2.0,    1.1,    0.9,    1.3,    0.7,    0.6,    0.8,    2.2,    1.9,    0.5,    2.4,    3.0,    3.5,    3.3,    3.6,  999.0,  999.0,  999.0,  999.0,  999.0,  999.0,  999.0,  999.0,  999.0,  999.0,  999.0,  999.0,  999.0,  999.0,  999.0,  999.0,  999.0,  999.0,  999.0,  999.0,  999.0,  999.0,  999.0,  999.0,  999.0,  999.0,  999.0,  999.0,  999.0,  999.0,  999.0,  999.0,  999.0,  999.0,  999.0,  999.0,  999.0
2001/03/24 02:40,  999.0,   -0.9,    0.4,    1.3,    1.5,    2.2,    1.2,   -0.6,   -2.3,   -2.0,   -1.4,   -1.3,   -0.7,   -0.4,    1.6,    1.3,    1.6,    2.9,    5.1,    2.3,    0.9,  999.0,  999.0,  999.0,  999.0,  999.0,  999.0,  999.0,  999.0,  999.0,  999.0,  999.0,    0.8,  999.0,  999.0,  999.0,  999.0,  999.0,  999.0,  999.0,  999.0,  999.0,  999.0,  999.0,  999.0,  999.0,  999.0,  999.0,  999.0,  999.0,  999.0,  999.0,  999.0,  999.0,  999.0,  999.0,  999.0,  999.0
2001/03/24 02:50,  999.0,    2.6,   -0.4,   -0.3,    0.3,   -0.8,   -1.8,   -1.4,   -2.0,   -3.0,   -1.0,   -0.6,   -1.7,    0.4,    1.5,    2.5,    3.4,    3.1,    3.2,    3.0,    2.4,  999.0,  999.0,  999.0,  999.0,  999.0,  999.0,  999.0,  999.0,  999.0,  999.0,  999.0,  999.0,  999.0,  999.0,  999.0,  999.0,  999.0,  999.0,  999.0,  999.0,  999.0,  999.0,  999.0,  999.0,  999.0,  999.0,  999.0,  999.0,  999.0,  999.0,  999.0,  999.0,  999.0,  999.0,  999.0,  999.0,  999.0
2001/03/24 03:00,  999.0,    0.2,    0.1,    0.2,    0.8,    0.2,   -0.7,   -0.8,   -1.0,   -1.0,   -2.2,   -0.9,    0.6,    1.6,    2.3,    3.9,    4.0,    3.5,    3.2,    3.2,    2.3,    1.6,  999.0,  999.0,  999.0,  999.0,  999.0,  999.0,  999.0,  999.0,  999.0,  999.0,  999.0,  999.0,  999.0,  999.0,  999.0,  999.0,  999.0,  999.0,  999.0,  999.0,  999.0,  999.0,  999.0,  999.0,  999.0,  999.0,  999.0,  999.0,  999.0,  999.0,  999.0,  999.0,  999.0,  999.0,  999.0,  999.0
2001/03/24 03:10,  999.0,  999.0,    0.8,    0.9,    1.6,    1.5,   -0.2,    0.0,    0.3,    0.4,   -0.8,    0.3,   -0.5,    1.7,    2.2,    2.1,    2.2,    2.2,  999.0,  999.0,  999.0,  999.0,  999.0,  999.0,  999.0,  999.0,  999.0,  999.0,  999.0,  999.0,  999.0,  999.0,  999.0,  999.0,  999.0,  999.0,  999.0,  999.0,  999.0,  999.0,  999.0,  999.0,  999.0,  999.0,  999.0,  999.0,  999.0,  999.0,  999.0,  999.0,  999.0,  999.0,  999.0,  999.0,  999.0,  999.0,  999.0,  999.0
2001/03/24 03:20,  999.0,   -1.7,    0.6,    2.5,    3.0,    1.8,   -0.2,    0.4,    2.1,    1.8,    0.5,    1.7,    2.6,    1.9,    1.9,    2.2,    2.1,    2.3,    2.3,    3.2,    3.4,  999.0,  999.0,  999.0,  999.0,  999.0,  999.0,  999.0,  999.0,  999.0,  999.0,  999.0,  999.0,  999.0,  999.0,  999.0,  999.0,  999.0,  999.0,  999.0,  999.0,  999.0,  999.0,  999.0,  999.0,  999.0,  999.0,  999.0,  999.0,  999.0,  999.0,  999.0,  999.0,  999.0,  999.0,  999.0,  999.0,  999.0
2001/03/24 03:30,  999.0,   -0.6,   -0.4,    2.1,    1.5,    1.2,    1.4,    1.8,    2.3,    4.3,    4.5,    3.8,    2.0,    1.6,    2.7,    2.6,    2.2,    2.6,  999.0,    3.0,  999.0,  999.0,  999.0,  999.0,  999.0,  999.0,  999.0,  999.0,  999.0,  999.0,  999.0,  999.0,  999.0,  999.0,  999.0,  999.0,  999.0,  999.0,  999.0,  999.0,  999.0,  999.0,   20.9,  999.0,  999.0,  999.0,  999.0,  999.0,  999.0,  999.0,  999.0,  999.0,  999.0,  999.0,  999.0,  999.0,  999.0,  999.0
2001/03/24 03:40,  999.0,    2.2,    0.8,    1.1,    2.2,    2.6,    2.3,    3.3,    3.9,    3.7,    2.6,    3.3,    2.9,    3.0,    1.8,    2.5,    2.2,    4.3,  999.0,    2.9,    3.5,    3.1,  999.0,  999.0,  999.0,  999.0,  999.0,  999.0,  999.0,  999.0,  999.0,  999.0,  999.0,  999.0,  999.0,  999.0,  999.0,  999.0,  999.0,  999.0,  999.0,  999.0,  999.0,  999.0,  999.0,  999.0,  999.0,  999.0,  999.0,  999.0,  999.0,  999.0,  999.0,  999.0,  999.0,  999.0,  999.0,  999.0
2001/03/24 03:50,  999.0,    5.6,   -0.4,    1.9,    2.5,    2.6,    2.7,    2.6,    3.7,    3.8,    4.2,    4.4,    4.6,    4.4,    3.6,    2.7,    2.7,    2.0,    2.8,    3.0,  999.0,    2.9,  999.0,  999.0,  999.0,  999.0,  999.0,  999.0,  999.0,  999.0,  999.0,  999.0,  999.0,  999.0,  999.0,  999.0,  999.0,  999.0,  999.0,  999.0,  999.0,  999.0,  999.0,  999.0,  999.0,  999.0,  999.0,  999.0,  999.0,  999.0,   22.4,   23.1,   22.8,   22.5,  999.0,  999.0,  999.0,   23.0
2001/03/24 04:00,  999.0,  999.0,  999.0,    1.4,    3.3,    2.5,    3.5,    3.7,    4.6,    5.1,    5.0,    5.5,    5.4,    4.6,    4.5,    4.3,    3.2,    1.1,  999.0,    1.7,  999.0,    0.6,   -2.2,  999.0,  999.0,  999.0,  999.0,  999.0,  999.0,  999.0,  999.0,  999.0,  999.0,  999.0,  999.0,  999.0,  999.0,  999.0,  999.0,  999.0,  999.0,  999.0,  999.0,  999.0,  999.0,  999.0,  999.0,  999.0,  999.0,  999.0,  999.0,    1.4,    1.2,  999.0,    0.7,  999.0,  999.0,  999.0
2001/03/24 04:10,  999.0,  999.0,    0.9,    1.1,    1.1,    1.0,    0.6,    2.6,    4.0,    4.5,    4.8,    5.3,    5.2,    4.3,    4.2,    3.7,    1.8,    2.3,    1.2,    2.7,  999.0,    0.9,    0.3,  999.0,  999.0,  999.0,  999.0,  999.0,  999.0,  999.0,  999.0,  999.0,  999.0,  999.0,  999.0,  999.0,  999.0,  999.0,  999.0,    4.7,    1.4,  999.0,  999.0,    1.3,    0.5,    0.6,    0.8,    1.1,  999.0,    0.8,  999.0,    1.1,    0.7,  999.0,    0.3,  999.0,    0.9,  999.0
2001/03/24 04:20,  999.0,   -1.6,    0.6,    1.2,    2.0,    0.8,    2.1,    2.4,    1.5,    2.1,    3.5,    3.5,    3.7,    3.3,    3.7,    3.5,    1.2,   -0.2,  999.0,   -0.3,    0.3,   -0.7,   -0.6,  999.0,  999.0,  999.0,  999.0,  999.0,  999.0,  999.0,  999.0,  999.0,  999.0,  999.0,  999.0,  999.0,  999.0,  999.0,    9.6,  999.0,  999.0,    7.8,  999.0,  999.0,    6.2,    3.4,  999.0,    1.0,    1.8,    2.6,  999.0,  999.0,  999.0,  999.0,  999.0,    0.3,  999.0,  999.0
2001/03/24 04:30,  999.0,    0.5,    4.8,    5.1,    0.5,    1.4,    2.5,    3.4,    3.4,    3.3,    2.6,    3.1,    3.8,    4.1,    3.9,    3.3,    1.9,  999.0,  999.0,  999.0,  999.0,  999.0,  999.0,  999.0,  999.0,  999.0,  999.0,  999.0,  999.0,  999.0,  999.0,  999.0,  999.0,  999.0,  999.0,    8.5,  999.0,  999.0,  999.0,  999.0,  999.0,    4.5,    3.2,  999.0,  999.0,  999.0,    2.8,    2.7,    1.4,  999.0,    0.9,  999.0,  999.0,  999.0,  999.0,  999.0,  999.0,    0.7
2001/03/24 04:40,  999.0,  999.0,  999.0,   -2.9,   -0.7,    0.1,    1.8,    3.8,    3.3,    2.0,    2.0,    1.9,    0.5,    1.0,    0.6,    1.4,    1.5,    1.8,    0.4,   -0.7,  999.0,  999.0,  999.0,  999.0,  999.0,  999.0,  999.0,  999.0,  999.0,  999.0,  999.0,  999.0,  999.0,  999.0,  999.0,  999.0,  999.0,  999.0,  999.0,  999.0,  999.0,  999.0,  999.0,  999.0,  999.0,    6.0,  999.0,  999.0,  999.0,  999.0,  999.0,  999.0,  999.0,  999.0,  999.0,  999.0,  999.0,  999.0
2001/03/24 04:50,  999.0,  999.0,  999.0,   -1.5,   -0.7,    0.1,    1.1,    0.7,    2.4,    1.3,    2.0,    1.1,    1.8,    0.3,    1.8,    1.8,    1.9,    1.7,    1.4,    0.6,  999.0,    0.7,  999.0,  999.0,  999.0,  999.0,  999.0,  999.0,  999.0,  999.0,  999.0,  999.0,  999.0,  999.0,  999.0,  999.0,  999.0,  999.0,  999.0,  999.0,  999.0,  999.0,  999.0,  999.0,  999.0,  999.0,  999.0,  999.0,  999.0,   -1.5,   11.8,  999.0,    0.9,    0.5,    0.6,  999.0,  999.0,  999.0
2001/03/24 05:00,  999.0,  999.0,   -1.1,   -1.0,    0.6,    1.3,    1.2,    1.4,    1.3,    0.5,    0.2,   -0.2,    0.3,   -1.0,    0.3,    0.1,    0.4,    0.5,    0.3,   -0.4,    2.0,    0.6,   -1.3,  999.0,  999.0,  999.0,  999.0,  999.0,  999.0,  999.0,  999.0,  999.0,  999.0,  999.0,  999.0,  999.0,  999.0,  999.0,  999.0,  999.0,  999.0,  999.0,  999.0,  999.0,  999.0,    1.0,    1.2,    0.7,    1.0,    0.7,  999.0,    1.4,    4.8,   11.1,  999.0,  999.0,    1.0,  999.0
2001/03/24 05:10,  999.0,  999.0,  999.0,   -0.0,   -0.9,    0.0,    1.5,    1.4,    1.1,    0.3,   -0.8,   -0.5,    0.8,    0.4,    0.8,    0.8,    1.2,    1.5,    1.5,  999.0,    3.8,  999.0,  999.0,  999.0,  999.0,  999.0,  999.0,  999.0,  999.0,  999.0,  999.0,  999.0,  999.0,  999.0,  999.0,  999.0,  999.0,  999.0,  999.0,  999.0,  999.0,  999.0,  999.0,   13.2,  999.0,    3.2,   12.6,   12.3,  999.0,  999.0,   11.9,   11.6,  999.0,  999.0,  999.0,   13.0,  999.0,  999.0
2001/03/24 05:20,  999.0,  999.0,    1.6,    0.6,    1.1,    0.2,    1.3,    1.2,    1.3,    0.3,   -0.8,   -1.3,   -0.8,    0.8,    1.0,    0.1,    0.3,    1.0,    2.0,  999.0,  999.0,  999.0,    2.4,  999.0,  999.0,  999.0,  999.0,  999.0,  999.0,  999.0,  999.0,  999.0,  999.0,  999.0,  999.0,  999.0,  999.0,  999.0,  999.0,  999.0,  999.0,  999.0,  999.0,  999.0,  999.0,  999.0,  999.0,  999.0,  999.0,  999.0,  999.0,  999.0,  999.0,  999.0,  999.0,  999.0,  999.0,  999.0
2001/03/24 05:30,  999.0,  999.0,  999.0,    0.5,    2.9,    3.0,    3.1,    0.6,    0.6,    1.3,   -1.5,   -2.2,   -2.1,   -0.9,    0.1,   -1.2,   -0.5,   -0.8,    0.3,    0.4,  999.0,  999.0,  999.0,  999.0,  999.0,  999.0,  999.0,  999.0,  999.0,  999.0,  999.0,  999.0,  999.0,  999.0,  999.0,  999.0,  999.0,  999.0,  999.0,  999.0,  999.0,  999.0,  999.0,  999.0,  999.0,  999.0,  999.0,  999.0,  999.0,  999.0,  999.0,  999.0,  999.0,  999.0,  999.0,  999.0,  999.0,  999.0
2001/03/24 05:40,  999.0,    1.1,   -0.5,    2.4,    3.5,    2.8,    0.6,    0.2,    1.3,    1.6,   -1.4,   -1.6,   -0.1,    0.9,    0.3,    0.5,   -0.1,    0.2,    0.2,    1.0,  999.0,  999.0,  999.0,    1.8,  999.0,  999.0,  999.0,  999.0,  999.0,  999.0,  999.0,  999.0,  999.0,  999.0,  999.0,  999.0,  999.0,  999.0,  999.0,  999.0,  999.0,  999.0,  999.0,  999.0,  999.0,  999.0,  999.0,  999.0,  999.0,  999.0,  999.0,  999.0,  999.0,  999.0,  999.0,  999.0,  999.0,  999.0
2001/03/24 05:50,  999.0,    1.9,    2.2,    1.4,    1.0,    1.8,    1.3,    0.7,    0.4,    0.6,    1.4,    0.5,    1.2,    1.7,    1.8,    1.9,    1.1,    0.9,    0.9,  999.0,  999.0,  999.0,  999.0,  999.0,    2.4,  999.0,  999.0,  999.0,  999.0,  999.0,  999.0,  999.0,  999.0,  999.0,  999.0,  999.0,  999.0,  999.0,  999.0,  999.0,  999.0,  999.0,  999.0,  999.0,  999.0,  999.0,  999.0,  999.0,  999.0,  999.0,  999.0,  999.0,  999.0,  999.0,  999.0,  999.0,  999.0,  999.0
2001/03/24 06:00,  999.0,  999.0,  999.0,    0.3,   -0.8,   -0.7,   -0.2,    0.3,    0.1,    1.8,    3.5,    4.1,    2.0,    0.7,    1.4,    1.8,    1.5,    0.9,  999.0,  999.0,  999.0,  999.0,  999.0,  999.0,  999.0,  999.0,  999.0,  999.0,  999.0,  999.0,  999.0,  999.0,  999.0,  999.0,  999.0,  999.0,  999.0,  999.0,  999.0,  999.0,  999.0,  999.0,  999.0,  999.0,  999.0,  999.0,  999.0,  999.0,  999.0,  999.0,  999.0,  999.0,  999.0,  999.0,  999.0,  999.0,  999.0,  999.0
2001/03/24 06:10,  999.0,  999.0,  999.0,   -2.1,   -2.2,   -1.4,    0.0,   -0.1,    0.0,    2.4,    2.9,    2.7,    1.7,    1.6,    1.6,    1.5,    1.5,    0.9,    1.8,    2.7,  999.0,  999.0,  999.0,  999.0,  999.0,  999.0,  999.0,  999.0,  999.0,  999.0,  999.0,  999.0,  999.0,  999.0,  999.0,  999.0,  999.0,  999.0,  999.0,  999.0,  999.0,  999.0,   15.8,   18.8,  999.0,   18.6,  999.0,  999.0,  999.0,   20.1,  999.0,  999.0,  999.0,  999.0,  999.0,  999.0,  999.0,   21.5
2001/03/24 06:20,  999.0,   -4.1,   -1.6,   -1.3,   -2.0,   -0.3,    1.8,    1.6,   -0.4,   -1.2,    0.3,    2.5,    3.6,    1.2,    2.0,    2.1,    1.2,    1.1,   -1.0,  999.0,  999.0,  999.0,  999.0,  999.0,  999.0,  999.0,  999.0,  999.0,  999.0,  999.0,  999.0,  999.0,  999.0,  999.0,  999.0,  999.0,  999.0,  999.0,  999.0,  999.0,  999.0,  999.0,  999.0,  999.0,  999.0,  999.0,  999.0,  999.0,  999.0,  999.0,  999.0,  999.0,  999.0,  999.0,  999.0,  999.0,  999.0,  999.0
2001/03/24 06:30,  999.0,   -3.8,   -3.9,   -2.8,   -0.5,    0.8,    0.8,   -2.6,   -2.9,   -0.9,    0.5,    1.7,    0.9,   -0.5,    0.2,    2.0,   -0.6,   -0.5,   -1.3,    0.5,    0.2,  999.0,  999.0,  999.0,  999.0,  999.0,  999.0,  999.0,  999.0,  999.0,  999.0,  999.0,  999.0,  999.0,  999.0,  999.0,  999.0,  999.0,  999.0,  999.0,  999.0,  999.0,  999.0,  999.0,  999.0,  999.0,  999.0,  999.0,  999.0,  999.0,  999.0,  999.0,  999.0,  999.0,  999.0,  999.0,  999.0,  999.0
2001/03/24 06:40,  999.0,    0.4,   -0.7,   -0.9,   -1.0,   -1.9,   -3.1,   -4.8,   -5.6,   -4.1,   -2.9,   -3.6,   -4.9,   -2.4,   -0.9,    0.4,    1.0,    0.4,  999.0,  999.0,    0.9,    1.3,  999.0,  999.0,  999.0,  999.0,  999.0,  999.0,  999.0,  999.0,  999.0,  999.0,  999.0,  999.0,  999.0,  999.0,  999.0,  999.0,  999.0,  999.0,  999.0,  999.0,  999.0,  999.0,  999.0,  999.0,  999.0,  999.0,  999.0,  999.0,  999.0,  999.0,  999.0,  999.0,  999.0,  999.0,  999.0,  999.0
2001/03/24 06:50,  999.0,    0.7,   -0.0,   -0.1,   -0.5,   -4.9,   -5.2,   -5.9,   -6.2,   -6.7,   -6.6,   -6.6,   -5.6,   -3.9,   -3.0,  999.0,   -1.4,   -2.8,   -5.4,   -8.2,   -7.4,   -9.4,  999.0,  999.0,  999.0,  999.0,  999.0,  999.0,  999.0,  999.0,  999.0,  999.0,  999.0,  999.0,  999.0,  999.0,  999.0,  999.0,  999.0,  999.0,  999.0,  999.0,  999.0,  999.0,  999.0,  -19.2,  999.0,  999.0,  999.0,  999.0,  999.0,  999.0,  999.0,  999.0,  999.0,  999.0,  999.0,  999.0
2001/03/24 07:00,  999.0,    0.9,  999.0,   -0.8,   -4.4,   -3.8,   -3.5,   -4.7,   -6.2,   -6.1,   -4.5,   -3.9,   -4.6,   -5.7,   -4.4,   -2.6,  999.0,    0.4,   -1.0,  999.0,   -3.6,  999.0,   -7.2,  999.0,  999.0,  999.0,  999.0,  -12.2,  999.0,  999.0,  999.0,  999.0,  999.0,  999.0,  999.0,  999.0,  999.0,  999.0,  999.0,  999.0,  999.0,  999.0,  999.0,  999.0,  999.0,  999.0,  999.0,  999.0,  999.0,  999.0,  999.0,  999.0,  999.0,  999.0,  999.0,  999.0,  999.0,  999.0
2001/03/24 07:10,  999.0,  999.0,    3.8,    1.5,   -0.2,   -4.1,   -4.0,   -5.7,   -7.0,   -7.8,   -5.2,   -3.5,   -1.7,   -1.7,   -1.8,    0.3,    2.0,    3.1,  999.0,  999.0,  999.0,  999.0,  999.0,  999.0,  999.0,  999.0,  999.0,  999.0,  999.0,  999.0,  999.0,  999.0,  999.0,  999.0,  999.0,  999.0,  999.0,  999.0,  999.0,  999.0,  999.0,  999.0,  999.0,  999.0,  999.0,  999.0,  999.0,  999.0,  999.0,  999.0,  999.0,  999.0,  999.0,  999.0,  999.0,  999.0,  999.0,  999.0
2001/03/24 07:20,  999.0,  999.0,    0.1,    1.9,   -1.8,   -4.7,   -5.2,   -5.7,   -7.6,   -7.9,   -7.1,   -5.0,   -3.1,   -3.4,   -2.8,   -1.5,    0.5,    0.5,    0.8,   -0.4,  999.0,    2.1,  999.0,  999.0,  999.0,  999.0,  999.0,  999.0,  999.0,  999.0,  999.0,  999.0,  999.0,  999.0,  999.0,  999.0,  999.0,  999.0,  999.0,  999.0,  999.0,  999.0,  999.0,  999.0,  999.0,  999.0,  999.0,  999.0,  999.0,  999.0,  999.0,  999.0,  999.0,  999.0,  999.0,  999.0,  999.0,  999.0
2001/03/24 07:30,  999.0,    3.0,    1.1,   -1.9,   -3.4,   -5.0,   -6.3,   -8.4,   -9.6,   -9.6,   -8.7,   -7.6,   -5.6,   -3.4,   -2.0,   -2.1,   -1.7,   -1.6,  999.0,  999.0,  999.0,  999.0,  999.0,  999.0,  999.0,  999.0,  999.0,  999.0,  999.0,  999.0,  999.0,  999.0,  999.0,  999.0,  999.0,  999.0,  999.0,  999.0,  999.0,  999.0,  999.0,  999.0,  999.0,  999.0,  999.0,  999.0,  999.0,  999.0,  999.0,  999.0,  999.0,  999.0,  999.0,  999.0,  999.0,  999.0,  999.0,  999.0
2001/03/24 07:40,  999.0,    1.2,    1.4,    3.0,    0.3,   -2.6,   -4.1,   -6.8,   -8.5,   -8.5,   -8.6,   -9.4,   -8.0,   -5.0,  999.0,   -0.7,   -0.8,   -1.0,   -0.3,   -0.7,    0.8,  999.0,  999.0,  999.0,  999.0,  999.0,  999.0,  999.0,  999.0,  999.0,  999.0,    1.0,  999.0,  999.0,  999.0,  999.0,    0.7,  999.0,  999.0,  999.0,  999.0,  999.0,  999.0,  999.0,  999.0,  999.0,  999.0,  999.0,  999.0,  999.0,  999.0,  999.0,  999.0,  999.0,  999.0,  999.0,  999.0,  999.0
2001/03/24 07:50,  999.0,    0.4,   -0.8,    2.0,    3.0,    0.8,   -0.8,   -1.9,   -3.7,   -5.1,   -6.3,   -7.1,   -6.1,   -5.3,   -3.6,   -1.8,    0.1,    0.8,   -0.4,    1.1,  999.0,  999.0,  999.0,  999.0,  999.0,  999.0,  999.0,  999.0,  999.0,  999.0,  999.0,  999.0,  999.0,  999.0,  999.0,  999.0,  999.0,  999.0,  999.0,  999.0,  999.0,  999.0,  999.0,  999.0,  999.0,  999.0,  999.0,  999.0,  999.0,  999.0,  999.0,  999.0,  999.0,  999.0,  999.0,  999.0,  999.0,  999.0
2001/03/24 08:00,  999.0,    1.1,    1.0,    1.8,    3.1,    2.1,    1.0,    0.3,   -2.6,   -3.8,   -5.4,   -5.0,   -5.3,   -5.6,   -4.1,   -3.0,  999.0,  999.0,  999.0,  999.0,  999.0,  999.0,  999.0,  999.0,  999.0,  999.0,  999.0,  999.0,  999.0,  999.0,  999.0,  999.0,  999.0,  999.0,  999.0,  999.0,  999.0,  999.0,  999.0,  999.0,  999.0,  999.0,  999.0,  999.0,  999.0,  999.0,  999.0,  999.0,  999.0,  999.0,  999.0,  999.0,  999.0,  999.0,  999.0,  999.0,  999.0,  999.0
2001/03/24 08:10,  999.0,    1.2,    0.1,    0.6,    1.8,    3.2,    3.8,    3.2,    1.5,   -1.9,   -3.9,   -4.6,   -4.2,   -4.4,   -5.5,   -3.7,   -0.3,  999.0,  999.0,  999.0,  999.0,    2.7,  999.0,  999.0,  999.0,  999.0,  999.0,  999.0,  999.0,  999.0,  999.0,  999.0,  999.0,  999.0,  999.0,  999.0,  999.0,  999.0,  999.0,  999.0,  999.0,  999.0,  999.0,  999.0,  999.0,  999.0,  999.0,  999.0,  999.0,  999.0,  999.0,  999.0,  999.0,  999.0,  999.0,  999.0,  999.0,  999.0
2001/03/24 08:20,  999.0,   -0.2,    0.3,    2.2,    2.5,    2.8,    2.6,    2.7,    1.1,   -1.5,   -2.7,   -3.5,   -3.3,   -3.1,   -3.7,   -3.4,   -1.1,  999.0,  999.0,  999.0,  999.0,  999.0,  999.0,  999.0,  999.0,  999.0,  999.0,  999.0,  999.0,  999.0,  999.0,  999.0,  999.0,  999.0,  999.0,  999.0,  999.0,  999.0,  999.0,  999.0,  999.0,  999.0,  999.0,  999.0,  999.0,  999.0,  999.0,  999.0,  999.0,  999.0,  999.0,  999.0,  999.0,  999.0,  999.0,  999.0,  999.0,  999.0
2001/03/24 08:30,  999.0,    0.5,    0.5,    1.9,    2.7,    1.5,    2.1,    2.6,    2.2,    0.6,   -2.0,   -4.0,   -3.8,   -3.4,   -4.6,   -4.0,   -1.8,  999.0,  999.0,   -2.9,  999.0,   -2.2,    5.4,  999.0,  999.0,  999.0,  999.0,  999.0,  999.0,  999.0,  999.0,  999.0,  999.0,  999.0,  999.0,  999.0,  999.0,  999.0,  999.0,  999.0,  999.0,    6.5,  999.0,  999.0,  999.0,  999.0,  999.0,  999.0,  999.0,  999.0,  999.0,  999.0,  999.0,  999.0,  999.0,  999.0,  999.0,  999.0
2001/03/24 08:40,  999.0,    2.2,    0.0,    0.9,    2.0,    1.9,    2.3,    2.7,    1.8,    0.8,   -1.8,   -3.4,   -3.2,   -3.6,   -4.3,   -4.2,   -2.5,   -0.8,    0.3,  999.0,    4.0,    5.1,  999.0,  999.0,  999.0,  999.0,  999.0,  999.0,  999.0,  999.0,  999.0,  999.0,  999.0,   10.4,  999.0,  999.0,  999.0,  999.0,  999.0,  999.0,  999.0,  999.0,  999.0,  999.0,  999.0,  999.0,  999.0,  999.0,  999.0,  999.0,  999.0,  999.0,  999.0,  999.0,  999.0,  999.0,  999.0,  999.0
2001/03/24 08:50,  999.0,    1.2,    1.3,    1.3,    2.8,    2.2,    1.4,    2.1,    2.2,    1.3,   -0.1,   -1.5,   -2.8,   -1.8,   -3.0,   -3.1,   -1.4,    0.8,    1.1,  999.0,    5.2,    7.4,  999.0,  999.0,  999.0,  999.0,  999.0,  999.0,  999.0,  999.0,  999.0,  999.0,  999.0,  999.0,  999.0,  999.0,  999.0,  999.0,  999.0,  999.0,  999.0,  999.0,  999.0,  999.0,  999.0,  999.0,  999.0,  999.0,  999.0,  999.0,  999.0,  999.0,  999.0,  999.0,  999.0,  999.0,  999.0,  999.0
2001/03/24 09:00,  999.0,    1.6,    0.6,    1.0,    2.7,    2.7,    2.1,    2.3,    3.1,    3.1,    0.8,   -0.5,   -2.0,   -1.9,   -3.1,   -2.7,   -1.8,    0.7,    1.3,    2.3,    4.1,    5.2,  999.0,  999.0,  999.0,  999.0,    4.2,  999.0,  999.0,  999.0,  999.0,  999.0,  999.0,  999.0,  999.0,  999.0,  999.0,  999.0,  999.0,  999.0,  999.0,  999.0,  999.0,  999.0,   17.7,  999.0,  999.0,  999.0,  999.0,  999.0,  999.0,  999.0,   19.9,   19.9,  999.0,  999.0,  999.0,  999.0
2001/03/24 09:10,  999.0,  999.0,   -0.5,    1.2,    1.8,    1.6,    1.0,    0.7,    1.9,    2.4,    1.9,    0.0,   -0.4,   -2.5,   -2.0,   -2.0,   -1.3,    1.2,    0.1,    0.4,  999.0,  999.0,  999.0,  999.0,  999.0,  999.0,  999.0,  999.0,  999.0,  999.0,  999.0,  999.0,  999.0,  999.0,  999.0,  999.0,  999.0,  999.0,  999.0,  999.0,  999.0,  999.0,  999.0,  999.0,  999.0,  999.0,  999.0,  999.0,  999.0,  999.0,  999.0,   19.3,  999.0,  999.0,  999.0,  999.0,  999.0,  999.0
2001/03/24 09:20,  999.0,    1.5,   -2.6,    0.7,    1.9,    1.1,    0.3,    0.0,    1.4,    2.1,    1.3,    0.3,   -0.2,   -1.4,   -1.6,   -1.7,    0.7,   -1.1,    1.2,  999.0,    2.3,    6.2,    8.3,  999.0,  999.0,  999.0,  999.0,  999.0,  999.0,  999.0,  999.0,  999.0,   32.3,  999.0,   33.1,   38.3,   37.3,   34.3,  999.0,  999.0,  999.0,  999.0,   40.3,  999.0,  999.0,   40.0,   41.1,  999.0,   41.5,   41.3,   41.4,   41.4,   41.5,   41.8,   41.6,  999.0,  999.0,   41.8
2001/03/24 09:30,  999.0,    1.0,    1.2,    1.2,    1.9,    0.9,    0.3,   -0.1,   -0.0,    0.5,    0.4,  999.0,  999.0,   -0.3,   -0.5,   -0.7,    0.3,  999.0,  999.0,  999.0,  999.0,  999.0,  999.0,  999.0,  999.0,  999.0,  999.0,  999.0,  999.0,  999.0,  999.0,  999.0,  999.0,   34.5,   33.2,   33.7,   36.7,   34.4,   36.5,   34.8,  999.0,   38.8,   40.1,   40.0,   37.5,   39.9,   39.8,   41.5,  999.0,   41.3,   41.1,   41.6,  999.0,   41.5,  999.0,  999.0,   41.7,  999.0
2001/03/24 09:40,  999.0,    1.5,    1.0,    1.6,    1.2,    0.3,   -0.1,    0.0,   -0.9,   -0.5,   -0.4,  999.0,  999.0,    0.0,   -0.5,   -0.6,    0.4,    1.6,  999.0,  999.0,  999.0,  999.0,  999.0,  999.0,  999.0,  999.0,  999.0,  999.0,  999.0,  999.0,  999.0,  999.0,  999.0,   35.2,  999.0,   34.5,  999.0,   38.7,   37.0,   36.8,   37.8,   39.2,   39.1,   40.5,   40.4,  999.0,   40.9,   41.9,   41.9,   41.8,   41.8,  999.0,   41.9,   41.8,   41.9,  999.0,   41.3,   42.1
2001/03/24 09:50,  999.0,    0.7,    0.3,    1.4,    0.7,   -0.1,   -0.3,   -1.4,   -1.6,   -1.4,   -0.1,  999.0,   -0.3,    1.7,    1.2,    0.6,    0.5,    2.0,  999.0,  999.0,  999.0,  999.0,  999.0,  999.0,  999.0,  999.0,  999.0,  999.0,  999.0,  999.0,  999.0,  999.0,   37.2,  999.0,  999.0,   37.8,   37.8,   38.0,   41.5,   39.0,   40.5,   40.1,   38.9,  999.0,   41.0,   40.5,   41.2,  999.0,   42.2,  999.0,   41.2,   41.4,  999.0,   41.6,   41.3,   41.5,   41.6,   41.7
2001/03/24 10:00,  999.0,    1.4,    1.2,    0.7,   -0.3,   -0.4,   -1.0,   -1.1,   -1.7,   -1.9,   -1.8,   -2.9,  999.0,   -0.2,    0.4,   -0.4,   -0.4,    1.0,  999.0,  999.0,  999.0,  999.0,  999.0,  999.0,  999.0,  999.0,  999.0,  999.0,  999.0,  999.0,  999.0,  999.0,  999.0,  999.0,  999.0,   34.1,  999.0,   36.4,   36.9,   37.1,   36.7,  999.0,  999.0,  999.0,  999.0,  999.0,   40.0,  999.0,  999.0,   42.1,   41.7,   41.6,  999.0,   41.3,   41.0,  999.0,   41.1,   41.9
2001/03/24 10:10,  999.0,    1.8,    1.9,    0.1,   -0.6,   -0.8,   -0.6,   -1.0,   -1.2,   -1.9,   -3.5,   -3.0,   -2.2,   -1.9,   -1.3,   -0.6,    0.3,    0.9,    1.2,  999.0,  999.0,  999.0,  999.0,  999.0,  999.0,  999.0,  999.0,  999.0,  999.0,  999.0,   31.5,   32.5,   32.3,   33.7,   34.1,   34.1,   34.5,   35.9,   36.6,   37.1,   37.3,   38.6,   38.8,   38.8,   39.0,   39.2,   41.1,   41.3,   40.8,   40.9,   41.7,   41.9,   41.8,   41.9,   42.4,   42.0,   41.7,  999.0
2001/03/24 10:20,  999.0,  999.0,    2.4,   -0.4,   -0.1,   -0.4,   -0.3,    0.7,   -0.4,   -1.7,   -2.7,   -3.4,   -0.8,   -1.4,   -1.8,   -1.6,   -0.5,   -0.2,    1.4,  999.0,  999.0,  999.0,  999.0,  999.0,  999.0,  999.0,  999.0,  999.0,  999.0,  999.0,  999.0,  999.0,  999.0,   35.1,  999.0,   38.3,   38.0,   37.3,   38.2,   38.7,  999.0,   41.4,   40.0,   40.0,  999.0,   41.3,   41.6,   41.4,   42.1,  999.0,   41.5,   41.6,   41.8,   41.5,   41.8,   41.6,  999.0,  999.0
2001/03/24 10:30,  999.0,    2.7,    2.8,   -0.0,   -0.7,   -0.4,    0.2,   -0.1,   -0.4,   -1.9,   -3.6,   -3.1,   -1.9,   -1.4,   -2.5,   -1.8,   -0.3,   -0.3,    0.6,    2.0,  999.0,  999.0,  999.0,  999.0,  999.0,  999.0,  999.0,  999.0,  999.0,  999.0,  999.0,  999.0,   39.2,  999.0,   40.5,   38.7,   39.0,   41.7,   39.6,  999.0,   41.6,   40.4,   39.9,  999.0,  999.0,   41.4,  999.0,   42.4,  999.0,  999.0,   41.7,   41.3,  999.0,   41.7,   41.2,  999.0,  999.0,   42.0
2001/03/24 10:40,  999.0,    1.6,    1.4,    0.6,   -0.3,    0.1,    0.9,    0.7,   -0.5,   -2.3,   -3.3,   -4.5,   -3.0,   -2.8,  999.0,  999.0,  999.0,    0.2,  999.0,  999.0,  999.0,  999.0,  999.0,  999.0,  999.0,  999.0,  999.0,  999.0,  999.0,  999.0,  999.0,   31.7,   32.3,   35.1,  999.0,   36.6,   39.8,   37.8,   39.6,   38.7,   39.5,   39.1,   41.0,   40.1,   41.5,  999.0,   41.9,   41.8,   41.6,   41.8,   41.3,   41.8,   41.8,  999.0,  999.0,  999.0,   42.5,  999.0
2001/03/24 10:50,  999.0,    0.2,   -0.2,   -0.5,   -1.6,   -0.3,   -0.7,    0.1,   -0.7,   -2.9,   -4.0,   -4.8,   -4.9,   -3.8,   -3.0,  999.0,  999.0,    2.7,    4.8,    6.9,  999.0,  999.0,  999.0,  999.0,  999.0,  999.0,  999.0,  999.0,  999.0,  999.0,  999.0,  999.0,  999.0,  999.0,  999.0,   41.3,  999.0,   39.6,   40.2,  999.0,  999.0,   40.8,   41.8,   41.6,   41.2,   41.5,   41.9,   42.2,  999.0,   41.7,   41.6,   41.7,   35.0,   31.7,   41.7,  999.0,   36.6,   41.1
2001/03/24 11:00,  999.0,    1.1,    0.6,   -1.6,   -1.3,   -0.0,    0.5,    0.5,    0.4,   -0.5,   -1.9,   -2.5,   -2.6,   -2.0,   -0.8,  999.0,    3.6,    5.2,    6.2,    8.8,  999.0,  999.0,  999.0,  999.0,  999.0,  999.0,  999.0,  999.0,  999.0,  999.0,  999.0,  999.0,  999.0,  999.0,  999.0,  999.0,  999.0,   42.0,   41.7,   41.8,   42.0,   41.8,   41.8,   41.4,   41.7,   41.7,  999.0,   41.8,   41.7,   41.6,   41.3,  999.0,  999.0,   41.8,  999.0,   41.6,   41.6,   41.9
2001/03/24 11:10,  999.0,    0.6,    0.7,   -1.0,   -2.6,   -2.1,    0.5,    1.0,    0.6,   -1.0,   -2.1,  999.0,   -3.5,   -2.7,   -2.1,   -1.4,    1.0,    2.0,    3.6,  999.0,  999.0,  999.0,  999.0,  999.0,  999.0,  999.0,  999.0,  999.0,  999.0,  999.0,  999.0,  999.0,  999.0,  999.0,  999.0,   40.8,   41.8,   41.9,  999.0,   42.2,   41.9,   42.6,   42.1,   41.8,   41.8,  999.0,   41.9,   41.9,  999.0,   42.0,   41.6,  999.0,   41.9,   41.7,   42.1,   41.5,   41.9,   42.0
2001/03/24 11:20,  999.0,    1.8,    1.3,   -0.3,   -1.1,   -0.9,    0.2,   -0.1,    0.6,   -0.3,   -1.5,   -4.2,   -2.3,   -3.3,   -3.0,   -2.8,   -1.5,    0.6,    2.4,    3.8,    5.2,    6.2,  999.0,  999.0,  999.0,  999.0,  999.0,  999.0,  999.0,  999.0,  999.0,  999.0,  999.0,  999.0,   39.7,  999.0,   41.9,  999.0,   41.5,   41.4,   41.6,   41.4,   41.4,   41.6,  999.0,   41.4,   41.3,   41.4,   41.7,   41.8,   41.8,   41.4,   41.1,   41.3,   41.7,  999.0,   41.7,   41.4
2001/03/24 11:30,  999.0,    0.6,    2.5,    1.7,    2.2,    2.1,    0.6,    0.7,    1.6,    1.3,   -1.1,   -2.8,   -2.9,   -3.2,   -1.9,   -1.8,   -1.5,   -0.5,    0.9,    2.0,    2.5,    2.5,  999.0,  999.0,  999.0,  999.0,  999.0,  999.0,  999.0,  999.0,  999.0,  999.0,  999.0,   39.2,   39.9,   39.5,  999.0,  999.0,  999.0,   41.7,  999.0,   41.5,  999.0,   41.6,   41.3,  999.0,  999.0,   41.5,  999.0,   42.4,  999.0,   41.6,   41.7,   41.6,   41.9,   41.9,   42.1,   42.3
2001/03/24 11:40,  999.0,   -0.5,   -0.1,   -0.4,   -2.2,   -1.8,   -0.1,    1.1,    2.3,    2.6,    1.5,   -2.0,   -2.9,   -3.3,   -3.6,   -3.9,   -1.8,   -0.8,    0.3,    1.4,    2.8,    0.9,    4.7,  999.0,  999.0,  999.0,  999.0,  999.0,  999.0,  999.0,  999.0,  999.0,  999.0,  999.0,  999.0,  999.0,  999.0,  999.0,  999.0,   41.6,   41.6,   41.6,   41.9,   41.7,   41.8,   41.8,   41.8,   42.1,   41.7,   41.8,   41.5,   42.5,   42.2,   41.7,   41.7,  999.0,   42.1,   42.2
2001/03/24 11:50,  999.0,   -0.0,   -0.5,   -1.1,   -1.7,   -2.4,   -0.8,    0.8,    2.3,    2.2,    1.4,   -0.8,   -3.2,   -4.4,   -4.3,   -4.6,   -2.9,   -1.2,   -0.3,    0.7,    1.3,    1.5,  999.0,  999.0,  999.0,  999.0,  999.0,  999.0,  999.0,  999.0,  999.0,  999.0,  999.0,  999.0,  999.0,  999.0,  999.0,  999.0,  999.0,  999.0,   41.9,   41.8,   41.3,   41.7,   41.4,   41.7,   41.7,   41.9,   41.8,   41.9,   42.0,   41.9,   41.8,   42.2,   42.5,   41.9,   41.7,   41.7
2001/03/24 12:00,  999.0,    0.3,   -0.5,   -2.3,   -1.3,   -2.4,   -1.8,   -1.6,   -1.3,   -1.2,   -1.5,   -1.8,   -5.5,   -6.7,   -3.4,  999.0,   -1.0,    0.4,    2.6,    3.4,    4.4,  999.0,  999.0,  999.0,  999.0,  999.0,  999.0,  999.0,  999.0,  999.0,  999.0,  999.0,  999.0,  999.0,  999.0,  999.0,  999.0,  999.0,  999.0,  999.0,  999.0,   41.9,  999.0,   41.8,   41.9,   41.6,   42.0,   41.7,  999.0,  999.0,  999.0,   41.8,  999.0,  999.0,  999.0,   42.2,   41.5,   42.0
2001/03/24 12:10,  999.0,    1.3,    0.5,   -0.3,   -1.1,   -1.9,   -0.1,   -0.2,   -1.4,   -1.6,   -0.9,   -0.8,   -3.4,   -3.5,   -2.5,   -2.7,    0.0,    0.3,    0.9,    2.9,  999.0,  999.0,  999.0,  999.0,  999.0,  999.0,  999.0,  999.0,  999.0,  999.0,  999.0,  999.0,  999.0,  999.0,  999.0,  999.0,  999.0,  999.0,  999.0,  999.0,  999.0,  999.0,  999.0,  999.0,  999.0,  999.0,  999.0,  999.0,  999.0,  999.0,  999.0,  999.0,  999.0,  999.0,  999.0,  999.0,  999.0,  999.0
2001/03/24 12:20,  999.0,    3.6,   -0.7,   -0.6,   -0.2,   -0.4,   -0.8,   -0.9,   -1.4,   -1.4,   -1.7,   -1.5,   -3.5,   -3.8,   -3.4,  999.0,   -0.2,    1.1,    2.4,    3.3,    5.1,  999.0,  999.0,  999.0,  999.0,  999.0,  999.0,  999.0,  999.0,  999.0,   -7.1,  999.0,   -5.4,   -4.6,   -2.8,   -2.2,   -1.5,   -0.6,   -1.3,   -0.9,   -0.8,   -0.4,   -1.2,   -0.9,   -0.9,   -0.9,  999.0,   -1.0,   -0.4,  999.0,   -0.7,   -0.4,   -0.8,   -0.2,   -0.6,   -0.8,   -0.5,   -0.7
2001/03/24 12:30,  999.0,    0.9,    1.2,    1.5,    0.0,    0.1,    0.4,   -0.6,   -1.5,   -1.8,   -1.3,   -2.5,   -3.7,  999.0,   -2.9,   -2.4,   -1.1,   -1.3,   -0.4,    1.8,  999.0,  999.0,  999.0,  999.0,  999.0,  999.0,  999.0,  999.0,  999.0,  999.0,  999.0,  999.0,  999.0,  999.0,  999.0,   -1.1,   -0.6,   -0.6,   -0.3,   -0.9,   -0.6,   -0.7,   -0.7,   -0.6,   -0.6,   -0.9,   -0.5,   -0.6,   -0.7,   -0.5,   -0.5,  999.0,  999.0,   -0.6,  999.0,   -0.5,   -0.6,  999.0
2001/03/24 12:40,  999.0,   -1.7,   -0.6,    0.3,   -0.5,   -0.8,   -1.6,   -1.5,   -2.3,   -2.3,   -1.5,   -1.1,   -3.8,  999.0,   -3.2,   -4.2,   -2.3,    0.1,    0.9,    2.9,    4.7,  999.0,  999.0,  999.0,  999.0,  999.0,  999.0,  999.0,  999.0,  999.0,  999.0,  999.0,   -2.0,  999.0,   -1.5,  999.0,   -0.9,   -0.9,  999.0,  999.0,   -0.8,   -0.8,   -0.7,  999.0,   -0.3,  999.0,   -0.5,  999.0,   -1.0,   -0.7,   -1.2,   -0.8,   -0.0,   -0.7,  999.0,  999.0,   -0.3,  999.0
2001/03/24 12:50,  999.0,    0.5,    0.9,    1.7,    0.4,    0.3,   -0.6,   -2.0,   -1.9,   -1.3,   -1.2,   -0.9,   -4.9,   -4.2,   -2.2,   -3.2,   -3.1,   -1.2,    0.3,    1.9,    3.7,    4.7,  999.0,  999.0,  999.0,  999.0,  999.0,  999.0,  999.0,  999.0,  999.0,   -3.7,   -3.9,   -2.9,   -2.4,   -1.5,   -0.8,   -1.0,   -0.9,   -1.1,   -0.8,  999.0,   -1.0,   -0.4,   -0.6,   -0.8,  999.0,   -0.5,   -0.8,   -0.6,  999.0,   -0.6,   -0.7,   -0.4,   -0.2,   -0.7,   -1.5,   -0.8
2001/03/24 13:00,  999.0,    0.1,   -2.1,   -0.5,   -0.2,   -0.2,   -0.7,   -1.0,   -1.1,   -0.9,   -1.0,   -0.1,   -1.8,   -3.0,   -3.9,   -3.1,   -3.7,   -2.7,   -1.9,   -1.4,   -2.1,  999.0,  999.0,  999.0,  999.0,  999.0,  999.0,  999.0,  999.0,  999.0,  999.0,  999.0,  999.0,   -1.6,   -0.6,   -0.5,   13.4,    7.8,   -0.7,   -1.0,   -0.4,   -0.4,   -0.5,   -0.4,  999.0,   -0.9,   -3.8,   -0.6,   -0.9,  -11.7,   -1.6,   -0.6,  999.0,   -0.6,   -2.4,   -0.6,   -0.8,  999.0
2001/03/24 13:10,  999.0,    1.0,    0.8,    2.0,    0.6,   -0.5,   -0.9,   -0.8,   -1.1,   -0.6,    0.4,   -1.0,   -0.8,   -1.8,   -2.7,   -1.6,   -0.7,   -0.1,    1.1,    3.1,  999.0,  999.0,  999.0,  999.0,  999.0,  999.0,  999.0,  999.0,  999.0,  999.0,  999.0,  999.0,  999.0,   -1.0,   -0.6,   -0.4,   -0.7,   -0.4,  999.0,   -0.6,   -1.1,   -0.9,   -0.4,   -1.2,   -0.9,   -0.8,  999.0,   -0.5,   -0.7,   -0.5,  999.0,   -0.9,   -0.7,   -0.8,   -0.7,   -0.8,   -0.7,   -0.7
2001/03/24 13:20,  999.0,    0.8,    1.0,    1.2,    1.0,    0.0,   -0.2,   -1.8,   -3.1,   -1.7,   -1.1,   -2.2,   -2.5,   -3.5,   -3.4,   -3.4,   -2.2,   -0.5,    0.4,    2.6,  999.0,  999.0,  999.0,  999.0,  999.0,  999.0,  999.0,  999.0,  999.0,  999.0,  999.0,  999.0,   -1.5,   -0.8,   -0.4,   -1.1,   -0.6,   -0.8,   -0.6,   -0.6,   -0.6,   -0.1,   -0.8,   -0.6,   -0.5,   -0.8,   -0.0,   -1.0,   -0.8,   -0.7,   -1.0,   -0.9,   -0.7,   -0.6,   -0.7,   -1.0,  999.0,   -1.1
2001/03/24 13:30,  999.0,   -0.3,    0.3,    1.0,    1.0,    0.2,    0.1,    0.8,    0.0,   -1.0,   -2.2,   -2.5,   -3.1,   -3.2,   -3.6,   -3.7,   -1.9,   -1.1,    0.1,    2.6,  999.0,  999.0,  999.0,  999.0,  999.0,  999.0,  999.0,  999.0,  999.0,  999.0,  999.0,  999.0,  999.0,  999.0,  999.0,  999.0,  999.0,  999.0,  999.0,  999.0,  999.0,  999.0,  999.0,  999.0,  999.0,  999.0,  999.0,  999.0,  999.0,  999.0,  999.0,  999.0,  999.0,  999.0,  999.0,  999.0,  999.0,  999.0
2001/03/24 13:40,  999.0,    0.5,    0.4,    1.3,    1.4,    0.2,   -0.4,   -0.2,   -0.0,   -1.2,   -2.4,   -2.8,   -3.2,   -3.4,   -3.9,   -3.5,   -3.3,   -1.5,    0.5,    2.1,  999.0,  999.0,  999.0,  999.0,  999.0,  999.0,  999.0,  999.0,  999.0,  999.0,  999.0,  999.0,  999.0,  999.0,  999.0,  999.0,  999.0,  999.0,  999.0,  999.0,  999.0,  999.0,  999.0,  999.0,  999.0,  999.0,  999.0,  999.0,  999.0,  999.0,  999.0,  999.0,  999.0,  999.0,  999.0,  999.0,   42.0,  999.0
2001/03/24 13:50,  999.0,    1.4,    0.4,   -0.1,    0.7,    2.3,    1.5,    1.1,   -0.3,   -1.4,   -1.7,   -2.4,   -2.9,   -3.4,   -3.5,   -3.3,   -2.3,    2.3,    2.5,    3.6,  999.0,  999.0,  999.0,  999.0,  999.0,  999.0,  999.0,  999.0,  999.0,  999.0,  999.0,  999.0,  999.0,  999.0,  999.0,  999.0,  999.0,  999.0,  999.0,  999.0,  999.0,  999.0,  999.0,  999.0,  999.0,  999.0,  999.0,   41.4,   41.7,   41.7,   41.7,   41.6,  999.0,   41.7,   41.5,   41.7,   41.4,   41.3
2001/03/24 14:00,  999.0,   -0.0,   -0.0,   -0.3,    0.4,   -0.0,  999.0,    0.6,    0.4,   -1.1,   -1.3,   -1.7,   -2.3,   -2.9,   -2.6,   -2.4,   -1.5,   -0.0,  999.0,    3.8,  999.0,  999.0,  999.0,  999.0,  999.0,  999.0,  999.0,  999.0,  999.0,  999.0,  999.0,  999.0,  999.0,  999.0,  999.0,   41.9,  999.0,  999.0,   41.7,   41.9,   42.3,   41.6,   41.5,   41.8,  999.0,   41.6,   41.7,  999.0,   41.5,   41.9,   41.2,   41.7,   41.8,   41.3,   41.8,   41.7,  999.0,   41.7
2001/03/24 14:10,  999.0,    0.2,    0.5,   -0.4,   -0.3,   -0.6,   -0.9,   -1.1,   -1.4,   -1.8,   -1.7,   -2.2,   -2.5,   -2.2,   -2.5,   -3.4,   -4.1,   -4.8,   -5.6,   -7.8,   -8.3,  999.0,  999.0,  999.0,  999.0,  999.0,  999.0,  999.0,  999.0,  999.0,  999.0,  999.0,  999.0,  999.0,  999.0,  999.0,  999.0,  999.0,  999.0,  999.0,  999.0,  999.0,  999.0,    0.9,    0.9,  999.0,  999.0,    0.8,  999.0,    0.5,    0.2,  999.0,    0.3,    0.4,  999.0,  999.0,    0.8,  999.0
2001/03/24 14:20,  999.0,    0.5,    1.3,    0.3,    0.6,   -0.2,   -1.3,   -1.4,   -0.5,    0.0,    0.1,   -1.0,   -1.7,   -1.4,   -0.6,    0.1,   -0.7,   -1.4,   -2.9,   -3.2,   -4.4,   -5.4,   -5.9,  999.0,  999.0,  999.0,  999.0,  999.0,  999.0,  999.0,  999.0,  999.0,  999.0,  999.0,  999.0,  999.0,    1.1,  999.0,  999.0,    0.2,    0.8,    0.8,    0.8,    0.6,    0.6,    0.5,    0.1,  999.0,    0.7,    0.7,    0.4,    0.3,    0.5,    0.9,  999.0,    0.6,    0.8,    0.9
2001/03/24 14:30,  999.0,   -0.3,    0.6,    0.9,    0.5,   -0.3,   -0.3,    0.1,    0.3,   -0.7,   -1.3,   -1.5,   -1.6,   -1.7,   -1.3,   -1.5,   -1.1,   -0.7,   -2.2,   -2.8,   -4.2,   -5.6,   -4.9,  999.0,  999.0,  999.0,  999.0,  999.0,  999.0,  999.0,  999.0,  999.0,  999.0,  999.0,    0.7,  999.0,  999.0,  999.0,    6.1,  999.0,    0.9,    6.0,  999.0,    0.6,    8.8,    8.8,    1.1,   20.0,  999.0,    1.1,    1.1,    0.9,    0.6,  999.0,    0.8,    7.7,   10.6,    0.9
2001/03/24 14:40,  999.0,   -1.7,    0.8,   -0.6,   -0.5,   -0.7,   -0.9,   -0.7,   -0.5,   -0.6,   -1.0,   -0.9,   -0.9,   -0.5,   -0.0,    0.0,   -0.4,   -1.3,   -3.0,   -4.1,   -4.2,   -4.8,   -5.5,   -3.8,  999.0,  999.0,  999.0,  999.0,  999.0,  999.0,  999.0,  999.0,  999.0,  999.0,  999.0,  999.0,    0.9,  999.0,  999.0,    0.6,    1.1,  999.0,    0.6,    0.9,    0.9,    1.0,    1.1,    0.4,  999.0,    0.5,    1.1,  999.0,    0.8,  999.0,    0.6,    0.8,    0.9,  999.0
2001/03/24 14:50,  999.0,   -1.6,   -1.5,   -1.4,   -1.8,   -1.9,   -2.3,   -1.6,   -1.4,   -2.1,   -2.1,   -2.1,   -2.1,   -2.3,   -1.8,   -2.2,   -2.0,   -2.7,   -2.5,   -2.2,   -2.6,   -1.9,   -1.1,   -3.2,   -2.3,  999.0,  999.0,  999.0,  999.0,  999.0,  999.0,  999.0,  999.0,  999.0,    7.9,   26.4,  999.0,  999.0,   21.8,  999.0,  999.0,  999.0,  999.0,  999.0,  999.0,  999.0,  999.0,   21.8,    0.7,   21.1,  999.0,  999.0,  999.0,  999.0,   20.9,   21.5,  999.0,  999.0
2001/03/24 15:00,  999.0,   -0.9,   -1.3,   -1.6,   -1.5,   -1.6,   -2.3,   -2.6,   -2.7,   -3.0,   -2.8,   -2.7,   -2.4,   -1.9,   -2.0,   -2.7,   -3.6,   -5.2,   -6.9,  -10.1,  -11.2,  -13.8,  -15.1,  -15.5,  999.0,  999.0,  999.0,  999.0,  999.0,  999.0,  999.0,  999.0,  999.0,  999.0,  999.0,  999.0,  999.0,  999.0,  999.0,  999.0,  999.0,  999.0,  999.0,  999.0,  999.0,  999.0,  999.0,  999.0,  999.0,  999.0,  999.0,  -20.7,  999.0,  999.0,  999.0,  999.0,  999.0,  999.0
2001/03/24 15:10,  999.0,   -0.4,   -0.6,   -1.1,   -1.8,   -2.9,   -3.4,   -3.5,   -3.8,   -4.1,   -4.1,   -4.0,   -3.6,   -4.3,   -3.0,   -1.9,   -1.4,   -1.5,   -1.3,   -0.3,   -3.7,   -5.6,   -7.3,   -9.1,  999.0,  999.0,  999.0,  999.0,  999.0,  999.0,  999.0,  999.0,  999.0,  999.0,  999.0,  999.0,  999.0,  999.0,  999.0,  999.0,  999.0,  999.0,  999.0,  999.0,  999.0,  999.0,  999.0,  999.0,  999.0,  999.0,  999.0,  999.0,  999.0,  999.0,  999.0,  999.0,  999.0,  999.0
2001/03/24 15:20,  999.0,    0.0,   -0.5,   -0.8,   -1.6,   -2.5,   -3.4,   -3.9,   -4.0,   -3.1,   -3.2,   -3.5,   -3.5,   -3.2,   -2.2,   -1.4,   -1.7,   -2.3,   -1.1,   -2.5,   -3.0,   -5.2,   -5.8,   -7.7,  999.0,  999.0,  999.0,  -15.4,  999.0,  999.0,  999.0,  999.0,  999.0,  999.0,  -40.2,  999.0,  999.0,  999.0,  -41.3,  999.0,  999.0,  999.0,  999.0,  -41.6,  999.0,  999.0,  999.0,  999.0,  -41.8,  999.0,  -41.8,  999.0,  999.0,  -41.3,  -42.1,  -41.6,  999.0,  999.0
2001/03/24 15:30,  999.0,    0.4,   -0.4,   -1.7,   -2.0,   -2.5,   -3.0,   -4.2,   -3.9,   -3.3,   -3.3,   -3.1,   -2.3,   -2.6,   -2.4,   -2.4,   -2.3,   -2.7,   -2.9,  999.0,   -1.8,   -4.6,   -2.6,  999.0,  999.0,  999.0,  999.0,  999.0,  999.0,  999.0,  999.0,  999.0,  999.0,  999.0,  999.0,  999.0,  999.0,  999.0,  -41.5,  999.0,  -41.7,  -41.5,  -41.6,  -41.3,  -41.7,  -41.5,  -41.7,  -41.9,  999.0,  999.0,  -42.2,  -41.9,  -42.4,  999.0,  999.0,  -41.6,  999.0,  999.0
2001/03/24 15:40,  999.0,  999.0,   -0.8,   -0.9,   -0.9,   -0.9,   -2.0,   -3.7,   -3.4,   -2.9,   -2.2,   -3.7,   -2.9,   -2.9,   -1.2,   -1.2,   -1.3,   -1.9,   -3.1,   -3.2,   -4.6,   -5.3,   -6.5,   -8.8,  -10.2,  999.0,  999.0,  999.0,  999.0,  999.0,  999.0,  999.0,  999.0,  999.0,  999.0,  999.0,  999.0,  -40.2,  -42.0,  -41.0,  -41.3,  -41.9,  -42.0,  -41.8,  -41.5,  -41.8,  999.0,  -42.0,  999.0,  -42.1,  -42.2,  999.0,  -42.1,  -42.3,  -42.0,  -41.7,  -41.5,  -41.5
2001/03/24 15:50,  999.0,  999.0,  999.0,   -0.8,   -2.5,   -1.5,   -1.7,   -2.0,   -1.9,   -2.3,   -2.5,   -2.7,   -2.0,  999.0,   -1.4,   -2.5,   -3.8,   -4.7,   -5.9,   -7.5,  999.0,  999.0,  999.0,  999.0,  999.0,  999.0,  999.0,  999.0,  999.0,  999.0,  999.0,  999.0,  999.0,  999.0,  999.0,  999.0,  -41.4,  -41.7,  -41.4,  -42.0,  -42.4,  -42.3,  -41.5,  -41.8,  -41.8,  -41.9,  -41.8,  -41.9,  -41.8,  -41.9,  -41.0,  -42.0,  -41.8,  -41.5,  -41.6,  999.0,  -41.7,  -42.0
2001/03/24 16:00,  999.0,   -1.9,   -1.3,   -1.6,   -1.2,   -0.5,   -0.6,   -1.4,   -1.0,   -0.4,   -1.1,   -1.5,   -1.3,   -2.2,   -1.7,   -1.9,   -2.1,   -3.4,   -5.5,   -6.1,  999.0,  999.0,  999.0,  999.0,  999.0,  999.0,  999.0,  999.0,  999.0,  999.0,  999.0,  999.0,  999.0,  999.0,  999.0,  -41.7,  -42.1,  999.0,  999.0,  -42.3,  -41.8,  -42.4,  999.0,  -41.8,  -41.7,  -41.7,  -41.4,  -41.9,  -42.0,  999.0,  -41.7,  999.0,  -42.0,  -41.8,  -41.6,  999.0,  -42.1,  999.0
2001/03/24 16:10,  999.0,   -0.5,   -1.1,   -0.3,   -0.3,  999.0,   -2.0,   -2.2,   -1.2,   -0.3,   -0.5,   -1.3,   -1.9,   -2.8,   -2.2,   -2.4,   -3.4,   -4.6,   -4.5,  999.0,  999.0,  999.0,  999.0,  999.0,  999.0,  999.0,  999.0,  999.0,  999.0,  -37.9,  -37.1,  999.0,  -40.8,  999.0,  -41.7,  999.0,  -42.4,  -41.5,  -41.7,  -42.0,  999.0,  999.0,  -41.7,  -41.6,  -41.4,  -41.9,  -41.4,  -42.0,  -41.4,  -41.6,  -41.6,  -42.0,  999.0,  999.0,  -41.7,  -41.2,  -41.6,  -41.1
2001/03/24 16:20,  999.0,  999.0,   -3.3,   -0.7,   -1.5,   -1.0,   -2.5,   -2.4,   -0.4,   -0.5,   -1.1,   -1.8,   -2.4,   -2.6,   -3.0,   -2.8,   -2.7,  999.0,  999.0,  999.0,  999.0,  999.0,  999.0,  999.0,  999.0,  999.0,  999.0,  999.0,  999.0,  999.0,  999.0,  999.0,  999.0,  999.0,  999.0,  999.0,  999.0,  999.0,  999.0,  999.0,  999.0,  999.0,  999.0,  999.0,  999.0,  999.0,  999.0,  999.0,  999.0,  999.0,  999.0,  999.0,  999.0,  999.0,  999.0,  999.0,  999.0,  999.0
2001/03/24 16:30,  999.0,   -1.8,   -1.9,   -2.7,   -2.3,   -1.5,   -1.3,   -1.5,   -1.8,   -1.7,   -2.0,   -1.6,   -0.8,   -0.2,   -0.6,   -0.9,    0.1,    0.6,   -7.5,  999.0,  999.0,  999.0,  999.0,  999.0,  999.0,  999.0,  999.0,  999.0,   -5.8,   -4.8,  999.0,   -0.2,  999.0,  999.0,  999.0,  999.0,  999.0,  999.0,  999.0,  999.0,  999.0,   -0.8,  999.0,  999.0,  999.0,  999.0,  999.0,  999.0,  999.0,   -0.7,  999.0,  999.0,   -0.5,  999.0,   -0.7,   -0.6,  999.0,  999.0
2001/03/24 16:40,  999.0,   -1.5,   -1.6,   -2.3,   -2.5,   -2.5,   -2.9,   -2.7,   -3.2,   -3.8,   -3.9,   -3.7,   -4.0,   -4.4,   -5.1,   -5.7,   -5.3,   -4.8,   -5.4,   -5.2,   -3.2,   -2.4,   -2.7,  999.0,  999.0,  999.0,  999.0,  999.0,  999.0,  -11.6,  -18.1,  -15.6,   -6.8,   -8.9,  999.0,  999.0,  999.0,   -7.9,   -5.1,   -4.1,  999.0,  999.0,  999.0,  999.0,  999.0,  999.0,  999.0,  999.0,  999.0,  999.0,  999.0,  999.0,    5.5,  999.0,  999.0,    6.2,  999.0,  999.0
2001/03/24 16:50,  999.0,  -20.7,   -9.3,  -10.7,   -1.7,  -10.8,  -11.8,  -20.6,  -17.7,  -20.3,  -20.5,  -19.9,  -19.0,  -15.1,  -15.1,  -19.4,  -14.7,  -20.8,  -21.3,  -22.6,  -22.4,  -22.3,  -16.9,  -22.0,  -17.0,  -19.0,  -15.4,  -14.7,  -15.4,  -16.5,  -20.6,  -16.2,  -20.2,  -17.4,  -14.9,  -11.1,  -12.4,  -13.6,   -9.1,   -9.9,  -12.3,  -11.6,  -12.2,   -5.1,   -5.4,   -9.6,   -9.6,   -7.2,  -12.9,  -13.0,  -13.3,  -14.2,  -10.3,   -9.1,   -9.5,   -1.9,   -1.9,   -1.0
2001/03/24 17:00,  999.0,    1.8,   -1.0,   -2.8,   -4.1,   -4.8,   -5.5,   -5.8,   -5.4,   -3.5,   -3.2,   -4.0,   -4.9,   -6.3,   -6.5,   -6.5,   -6.5,   -7.3,   -7.4,   -6.7,   -6.9,   -7.8,   -7.8,   -7.3,   -7.1,   -7.2,   -6.9,   -6.4,   -5.0,   -3.7,   -2.8,   -2.1,   -2.6,   -1.9,   -1.3,    0.9,   -0.2,    1.1,   -0.0,    0.2,    0.9,    0.2,   -1.2,    1.9,    1.7,   -0.2,    1.8,   -5.8,   -3.8,   -4.9,   -8.3,  -11.7,  -13.8,  -12.5,  -12.2,  -11.7,  -10.8,  -15.3
2001/03/24 17:10,  999.0,    5.3,    4.6,    3.1,    1.2,   -0.8,   -0.9,   -2.5,   -2.3,   -2.4,   -1.3,   -2.2,   -2.8,   -3.1,   -3.0,   -4.8,   -6.7,   -6.3,   -5.4,   -6.1,   -6.7,   -5.9,   -2.4,   -1.7,   -1.3,   -2.5,   -2.7,   -3.1,   -2.6,   -1.1,   -2.6,   -4.2,   -4.5,   -4.5,   -6.4,   -6.8,   -3.5,   -4.6,   -5.9,   -5.7,   -4.3,   -7.0,   -8.1,   -8.7,   -6.4,   -3.2,   -6.1,   -4.4,   -7.0,   -7.8,   -6.1,   -9.8,  -10.4,  -10.6,  -14.0,  -13.5,  -14.8,  -12.0
2001/03/24 17:20,  999.0,    3.7,    1.6,    1.4,    1.3,   -0.1,   -0.5,   -0.8,   -0.8,   -1.4,   -1.9,   -2.3,   -3.2,   -3.3,   -3.0,   -3.0,   -3.4,   -3.6,   -2.8,   -1.8,   -1.4,   -1.9,   -1.8,   -0.7,   -2.5,    1.0,   -1.7,   -2.0,   -2.6,   -0.9,   -2.3,   -2.5,   -0.1,   -0.5,   -1.4,   -1.9,   -3.6,   -2.9,   -3.4,   -3.0,   -2.1,   -2.0,   -1.4,   -2.9,   -5.5,   -5.7,   -5.1,   -4.7,   -1.7,   -3.7,   -1.6,  999.0,  999.0,   -5.2,   -8.2,  -10.5,   -6.9,  -10.5
2001/03/24 17:30,  999.0,    2.5,   -0.1,   -0.6,   -0.2,    0.1,   -0.5,    0.5,    1.6,    1.2,    0.3,   -0.4,    1.5,   -0.1,    0.3,    0.3,    1.9,    2.2,    1.8,    3.7,    3.1,    3.4,    3.2,    2.4,    1.6,    1.3,    1.3,    1.8,    2.4,    4.4,    5.1,    6.6,    8.1,    9.0,    8.3,    8.8,    9.7,   11.4,   12.3,   13.6,   12.1,   16.5,   12.1,   15.1,   12.8,    7.1,    8.4,   12.7,   11.1,    7.6,    0.2,    2.8,    2.2,    2.5,   -2.8,    4.4,  999.0,  999.0
2001/03/24 17:40,  999.0,    1.2,    1.8,    1.3,    0.1,   -1.1,   -2.7,   -3.9,   -5.0,   -5.8,   -5.2,   -3.6,   -2.6,   -1.7,   -2.0,   -1.8,   -0.9,    0.0,    0.3,    1.4,    2.0,    2.2,    3.6,    4.6,    5.6,    6.8,    8.1,    8.9,    8.7,   11.5,   13.1,   13.3,   13.4,   14.1,   12.6,   12.5,   15.0,   14.2,   14.2,   13.3,   11.8,    9.7,    7.5,    6.3,    5.8,    5.7,    4.6,    4.1,    3.9,    6.2,    5.2,    5.7,    6.5,    6.7,   -3.5,   -2.7,   -1.5,   -8.4
2001/03/24 17:50,  999.0,    0.4,   -0.2,   -1.1,   -1.0,   -1.2,   -1.9,   -1.6,   -0.8,    1.4,    1.5,   -0.4,   -0.8,   -0.7,   -1.2,   -1.3,   -1.1,   -0.6,   -0.9,   -2.5,   -0.8,    0.6,    3.1,    5.9,    5.8,    9.2,    9.8,   10.9,   11.8,   11.9,   12.1,   11.2,    9.6,    8.5,    8.1,    8.3,    8.0,    7.4,    6.7,    6.1,    5.4,    2.9,    2.8,    3.4,    4.5,    4.5,    5.3,    3.6,    6.6,    2.6,    5.5,    2.4,    2.8,    5.2,    7.0,    6.9,    6.3,    7.0
2001/03/24 18:00,  999.0,   -0.5,   -1.3,   -1.7,   -1.6,   -1.4,   -0.4,    0.4,    1.3,    1.8,    2.1,    2.0,    1.0,    0.8,    0.6,    0.4,    0.4,    1.2,    1.7,    0.8,    1.0,    2.0,    2.0,    1.6,    0.7,    0.3,    1.2,    2.9,    4.5,    5.4,    5.7,    5.3,    4.2,    2.6,    3.4,    3.0,    3.0,    2.8,    2.4,    2.2,    2.4,    2.9,    2.8,    2.6,    2.0,   -1.2,   -0.7,   -3.0,   -3.1,   -4.0,   -3.8,   -3.9,   -3.4,   -3.2,   -2.8,   -3.7,   -3.3,   -2.0
2001/03/24 18:10,  999.0,    0.4,   -0.1,   -1.3,   -1.2,   -2.8,   -2.7,   -1.6,   -0.5,    0.2,    0.5,    0.5,   -0.4,   -0.5,   -0.7,    0.1,   -0.6,   -1.5,   -1.1,   -0.6,   -0.8,   -0.2,   -0.3,   -0.3,   -0.8,   -1.0,   -0.7,    0.3,    0.8,    1.4,    1.8,    2.5,    2.5,    2.6,    2.9,    3.8,    4.2,    4.8,    4.9,    4.7,    5.1,    5.2,    5.0,    4.7,    3.7,    3.4,    3.7,    3.2,    3.1,    2.9,    2.8,    3.2,    2.8,    2.7,    1.6,    1.2,    0.6,   -0.6
2001/03/24 18:20,  999.0,    2.4,    2.1,    1.1,   -0.3,   -2.6,   -3.1,   -2.5,   -1.3,   -0.5,   -0.1,    0.3,    0.1,   -0.6,   -0.6,   -0.7,   -0.5,   -0.9,   -1.6,   -1.6,   -1.3,   -0.4,   -0.6,   -1.1,   -1.3,   -1.1,   -0.7,   -0.5,   -0.8,   -1.0,   -0.5,    0.3,    0.5,    0.5,    1.1,    1.6,    1.7,    1.7,    1.5,    1.1,    0.9,    0.6,   -0.2,   -1.3,   -2.4,   -2.3,   -2.4,   -3.0,   -3.6,   -3.8,   -4.2,   -3.8,   -4.2,   -4.3,   -4.0,   -5.0,   -5.5,   -5.4
2001/03/24 18:30,  999.0,    3.2,    2.1,   -0.3,   -2.3,   -4.0,   -4.2,   -3.0,   -1.3,    0.0,    0.6,   -0.2,   -0.8,   -1.2,   -0.7,   -0.3,   -0.6,   -1.0,   -2.1,   -2.4,   -2.2,   -1.4,   -1.0,   -1.1,   -0.9,   -0.9,   -0.9,   -1.1,   -0.5,   -0.7,   -0.7,   -0.0,    0.9,    1.5,    1.8,    2.2,    2.3,    2.0,    1.5,    0.8,    0.3,    0.3,    0.6,    0.7,    0.4,   -0.2,   -0.4,   -0.3,   -1.1,   -1.1,   -1.0,   -0.7,   -0.2,   -1.1,   -1.6,   -1.7,   -1.8,   -1.3
2001/03/24 18:40,  999.0,    3.8,    1.9,   -0.4,   -2.2,   -3.2,   -4.1,   -3.5,   -1.5,    0.4,    1.1,    0.3,   -0.2,   -0.4,   -0.2,    0.1,    0.1,   -0.1,   -0.2,   -0.3,   -0.1,    0.2,   -0.1,    0.1,    0.1,   -0.1,    0.2,    0.8,    1.2,    1.4,    2.1,    2.5,    2.9,    3.2,    3.7,    3.0,    1.9,    1.0,    0.4,    0.3,    0.5,    0.6,    0.6,    1.3,    2.0,    1.9,    1.0,    0.2,   -1.0,   -2.6,   -3.3,   -4.1,   -4.1,   -2.5,   -1.0,   -0.3,    1.5,    1.7
2001/03/24 18:50,  999.0,    2.7,    1.0,   -0.3,   -1.6,   -2.7,   -3.4,   -3.5,   -2.2,   -0.6,    0.3,   -0.4,   -1.0,   -1.4,   -1.0,   -0.2,   -0.4,   -0.8,   -0.0,    0.5,    0.7,    1.2,    1.0,    0.7,    1.0,    1.8,    2.4,    3.2,    4.1,    4.6,    4.5,    4.3,    4.9,    5.0,    4.1,    2.7,    1.2,   -0.1,   -0.6,   -1.1,   -2.2,   -3.0,   -2.6,   -1.4,    0.2,    0.4,    0.3,   -1.0,   -1.9,   -2.8,   -3.6,   -4.3,   -5.2,   -6.7,   -7.9,   -8.8,   -9.1,   -8.9
2001/03/24 19:00,  999.0,  999.0,  999.0,   -0.1,   -1.6,   -2.3,   -3.6,   -4.7,   -4.6,   -3.5,   -1.9,   -1.6,   -2.6,   -3.1,   -3.0,   -3.0,   -2.4,   -2.1,   -1.7,   -1.2,   -0.6,   -0.6,   -1.3,   -0.9,   -0.7,   -0.6,    0.2,    0.4,    0.3,   -0.7,   -0.4,   -0.0,   -0.2,   -0.8,   -1.9,   -2.4,   -3.4,   -4.1,   -4.3,   -4.5,   -4.2,   -3.7,   -3.0,   -2.2,   -1.2,   -1.7,   -2.2,   -3.1,   -4.2,   -5.4,   -4.6,   -5.7,   -8.1,  -10.3,  -11.4,   -9.4,   -7.4,   -6.3
2001/03/24 19:10,  999.0,    1.0,    1.1,    0.5,   -0.8,   -1.2,   -2.4,   -4.3,   -4.1,   -2.3,   -1.3,   -1.5,   -1.7,   -1.9,   -2.1,   -2.1,   -1.8,   -1.1,   -0.5,    0.1,    0.3,    0.2,   -0.4,    0.2,    0.8,    1.2,    1.7,    1.3,    1.2,    1.7,    1.8,    1.1,    0.3,   -0.5,   -1.4,   -2.0,   -2.7,   -3.5,   -4.1,   -4.7,   -4.6,   -4.3,   -3.5,   -2.7,   -2.3,   -1.4,   -2.2,   -2.4,   -2.6,   -3.2,   -3.5,   -4.4,   -6.1,   -5.9,   -5.9,   -5.9,   -6.6,   -7.2
2001/03/24 19:20,  999.0,   -2.4,    0.4,    0.3,   -0.7,   -2.2,   -4.0,   -4.7,   -3.8,   -2.3,   -1.5,   -1.6,   -1.5,   -1.2,   -1.3,   -1.7,   -1.9,   -1.4,   -0.8,   -0.6,   -0.1,    0.0,   -0.4,    0.5,    1.1,    1.7,    2.2,    2.0,    2.1,    2.3,    1.9,    0.6,   -0.8,   -1.8,   -2.3,   -2.8,   -2.8,   -3.0,   -3.2,   -3.4,   -3.3,   -3.0,   -2.6,   -2.3,   -1.6,   -2.0,   -2.9,   -2.5,   -2.4,   -3.4,   -4.1,   -4.9,   -5.0,   -5.5,   -2.9,   -1.7,   -0.2,    0.2
2001/03/24 19:30,  999.0,  999.0,   -0.0,   -1.2,   -1.0,   -2.7,   -3.6,   -4.1,   -3.8,   -3.1,   -1.5,   -0.8,   -0.5,   -0.8,   -1.2,   -1.8,   -1.4,   -0.4,   -0.0,    0.0,    0.4,    0.6,    1.2,    1.8,    2.0,    0.2,   -0.4,   -0.8,   -2.0,   -0.0,   -0.8,   -1.8,   -2.1,   -1.7,   -1.1,   -1.2,   -1.8,   -2.4,   -2.4,   -2.0,   -1.4,   -1.3,   -1.8,   -2.3,   -1.8,   -2.0,   -3.9,   -4.8,   -5.4,   -6.2,   -6.5,   -7.0,   -7.7,   -7.9,   -8.2,   -8.5,   -7.6,   -5.9
2001/03/24 19:40,    1.4,   -0.1,   -2.5,   -1.5,   -1.4,   -2.4,   -3.0,   -3.2,   -2.7,   -1.2,   -0.2,   -0.9,   -0.9,   -0.7,   -0.3,   -0.5,   -0.0,    1.1,    1.8,    1.9,    0.3,    1.5,    1.6,    2.2,    1.8,    1.7,    1.3,    1.0,    0.0,   -1.1,   -1.9,   -3.4,   -3.9,   -4.5,   -3.9,   -3.8,   -4.1,   -4.9,   -5.4,   -5.4,   -4.7,   -4.6,   -5.1,   -5.3,   -4.9,   -4.6,   -4.6,   -4.4,   -4.3,   -3.9,   -4.5,   -5.6,   -5.4,   -4.6,   -2.8,   -1.5,   -0.9,   -1.7
2001/03/24 19:50,    2.0,    0.8,   -0.0,   -2.4,   -3.9,   -3.7,   -4.9,   -5.0,   -4.1,   -2.8,   -1.8,   -1.7,   -1.4,   -2.6,   -2.1,   -2.3,   -1.5,   -0.6,   -0.2,   -0.2,   -0.4,   -0.1,    0.5,    0.9,    1.7,    1.5,    0.3,   -0.6,   -0.8,   -1.1,   -1.4,   -1.9,   -2.2,   -2.4,   -2.5,   -3.3,   -4.4,   -5.4,   -6.0,   -4.3,   -2.5,   -2.6,   -3.0,   -4.6,   -5.7,   -6.1,   -5.2,   -4.6,   -4.3,   -4.1,   -3.9,   -3.6,   -2.7,   -1.9,   -1.9,   -1.5,   -1.4,   -1.1
2001/03/24 20:00,  999.0,   -1.8,   -2.0,   -0.9,   -1.2,   -2.6,   -3.6,   -4.3,   -4.4,   -3.3,   -2.6,   -2.2,   -2.4,   -2.7,   -2.4,   -2.2,   -1.9,   -1.2,   -1.0,   -0.9,   -0.8,   -0.2,    0.3,    0.2,   -1.1,   -1.7,   -1.4,   -1.6,   -2.7,   -3.6,   -4.2,   -5.1,   -6.0,   -6.3,   -7.0,   -7.9,   -8.5,   -8.4,   -7.4,   -5.4,   -3.7,   -3.2,   -4.3,   -4.8,   -4.7,   -4.1,   -3.2,   -3.3,   -3.2,   -3.1,   -3.1,   -2.6,   -2.2,   -2.1,   -2.2,   -2.1,   -2.3,   -2.3
2001/03/24 20:10,  999.0,   -1.2,   -1.4,   -1.9,   -3.2,   -3.6,   -4.0,   -4.4,   -4.5,   -3.7,   -2.7,   -2.7,   -3.0,   -2.9,   -2.5,   -2.6,   -2.3,   -1.5,   -1.5,   -1.9,   -1.5,   -1.4,   -2.4,   -3.3,   -3.2,   -3.1,   -2.9,   -3.8,   -5.1,   -6.1,   -7.1,   -7.8,   -7.8,   -7.2,   -6.7,   -6.1,   -5.2,   -3.7,   -1.8,    0.0,    0.6,    0.0,   -1.5,   -2.6,   -3.9,   -3.7,   -3.1,   -2.6,   -1.9,   -1.4,   -1.0,   -1.1,   -1.5,   -1.8,   -2.3,   -2.5,   -2.2,   -2.5
2001/03/24 20:20,  999.0,   -1.0,   -1.3,   -2.6,   -3.3,   -3.1,   -3.2,   -3.6,   -3.8,   -2.7,   -2.2,   -2.4,   -2.4,   -2.0,   -1.7,   -1.6,   -0.2,    0.5,    0.7,    0.6,    0.4,   -0.2,   -0.2,   -0.5,   -0.9,   -2.2,   -3.7,   -4.6,   -5.3,   -4.7,   -3.9,   -3.7,   -3.9,   -3.9,   -3.5,   -3.6,   -3.4,   -3.6,   -3.6,   -2.5,   -1.5,   -1.9,   -2.8,   -5.0,   -6.7,   -6.0,   -5.3,   -3.9,   -3.2,   -2.8,   -3.2,   -4.1,   -5.0,   -5.7,   -5.8,   -6.1,   -6.3,   -6.2
2001/03/24 20:30,  999.0,   -1.5,   -2.0,   -2.8,   -2.9,   -2.4,   -2.8,   -2.7,   -2.5,   -2.4,   -1.7,   -1.8,   -1.3,   -1.3,   -0.9,   -0.9,    0.7,    1.7,    2.6,    1.7,    0.8,    1.0,    1.2,    0.5,   -0.7,   -1.9,   -2.2,   -3.0,   -3.0,   -3.0,   -3.3,   -3.1,   -2.9,   -2.9,   -2.8,   -3.0,   -3.8,   -4.5,   -4.9,   -4.8,   -4.1,   -4.9,   -4.3,   -4.7,   -6.8,   -6.4,   -5.5,   -5.9,   -6.8,   -7.5,   -7.9,   -8.3,   -8.6,   -8.6,   -8.6,   -8.7,   -9.1,   -9.2
2001/03/24 20:40,  999.0,   -3.5,   -4.2,   -4.2,   -4.4,   -4.4,   -4.3,   -4.0,   -3.5,   -3.3,   -3.0,   -3.0,   -2.1,   -1.9,   -1.4,   -0.4,    0.4,    0.8,    0.6,   -0.1,   -0.2,   -0.1,   -0.9,   -1.4,   -2.4,   -3.2,   -2.8,   -2.4,   -2.7,   -3.4,   -3.4,   -3.2,   -3.3,   -2.6,   -2.3,   -2.2,   -1.9,   -2.6,   -3.9,   -4.4,   -4.4,   -4.0,   -2.3,   -4.7,   -7.2,   -8.2,   -9.3,  -10.0,  -10.8,  -11.5,  -12.0,  -11.6,  -11.4,  -11.0,   -9.9,   -9.0,   -8.6,   -8.3
2001/03/24 20:50,  999.0,   -3.1,   -3.2,   -3.5,   -3.3,   -3.1,   -3.2,   -3.7,   -2.8,   -2.4,   -2.5,   -2.0,   -1.3,   -0.8,    0.2,    0.4,    0.1,   -0.5,   -0.1,    0.1,    0.3,   -0.3,   -1.1,   -2.0,   -2.1,   -3.0,   -3.6,   -3.8,   -4.2,   -4.1,   -4.5,   -4.7,   -5.1,   -5.2,   -5.1,   -5.1,   -5.2,   -5.3,   -4.6,   -3.1,   -2.5,   -3.7,   -4.2,   -5.0,   -5.9,   -5.7,   -5.5,   -6.1,   -7.1,   -8.5,  -10.2,  -11.8,  -12.9,  -15.0,  -15.4,  -15.3,  -15.0,  -14.5
2001/03/24 21:00,  999.0,   -3.0,   -3.5,   -3.0,   -3.0,   -4.0,   -4.7,   -4.4,   -3.7,   -3.2,   -2.9,   -2.5,   -2.0,   -1.4,   -0.6,   -0.5,   -0.7,   -0.2,    0.2,    0.8,    0.8,    0.2,   -0.3,   -0.3,   -1.0,   -1.6,   -2.4,   -2.5,   -2.5,   -2.5,   -2.8,   -3.3,   -3.7,   -4.0,   -4.1,   -4.2,   -4.0,   -3.8,   -3.4,   -2.7,   -1.6,   -3.4,   -5.2,   -5.5,   -4.8,   -4.6,   -5.2,   -5.6,   -5.5,   -5.2,   -5.2,   -5.5,   -6.0,   -6.6,   -6.8,   -7.2,   -7.7,   -8.7
2001/03/24 21:10,  999.0,   -2.5,   -3.1,   -2.9,   -3.3,   -3.6,   -4.3,   -4.4,   -3.8,   -2.5,   -1.8,   -2.1,   -2.1,   -1.9,   -0.6,    0.4,    0.5,    1.1,    2.0,    2.9,    3.2,    2.3,    2.5,    2.4,    2.1,    1.4,    0.1,   -1.1,   -1.0,   -0.7,   -1.2,   -0.7,   -0.9,   -1.1,   -1.4,   -1.1,   -0.9,   -0.6,   -0.7,   -0.8,   -1.8,   -1.6,   -2.1,   -5.1,   -6.4,   -5.9,   -5.7,   -6.7,   -6.8,   -6.0,   -5.6,   -4.8,   -3.8,   -3.0,   -3.3,   -4.1,   -5.4,   -7.0
2001/03/24 21:20,  999.0,   -1.5,   -1.6,   -2.6,   -2.5,   -2.2,   -3.6,   -3.9,   -4.6,   -3.9,   -2.4,   -1.8,   -1.7,   -1.7,   -1.6,    0.3,    0.7,    1.1,    2.1,    2.9,    3.8,    3.3,    3.4,    2.8,    2.3,    1.2,    0.0,   -0.8,   -1.2,   -0.7,   -1.2,   -1.7,   -2.2,   -1.9,   -1.5,   -1.3,   -1.4,   -1.8,   -1.9,   -1.9,   -2.1,   -1.5,   -1.7,   -3.0,   -4.3,   -5.1,   -4.9,   -5.0,   -5.1,   -4.8,   -4.4,   -5.1,   -5.5,   -5.7,   -5.6,   -5.3,   -5.9,   -6.4
2001/03/24 21:30,  999.0,   -2.9,   -3.2,   -2.2,   -4.2,   -4.7,   -4.8,   -4.4,   -4.2,   -4.2,   -4.3,   -3.4,   -2.3,   -1.7,   -1.4,   -1.1,   -0.0,    0.9,    1.6,    2.6,    2.5,    2.4,    1.5,   -0.3,   -2.0,   -2.5,   -3.1,   -3.8,   -3.6,   -3.1,   -3.6,   -3.5,   -2.9,   -3.5,   -2.8,   -3.1,   -3.0,   -3.4,   -4.6,   -5.5,   -5.1,   -1.7,  999.0,   -3.6,   -4.6,   -6.1,   -6.4,   -5.7,   -4.9,   -5.2,   -6.4,   -8.6,   -9.1,   -8.8,   -7.8,   -7.8,   -7.6,   -7.8
2001/03/24 21:40,  999.0,  -11.2,  -17.4,  -11.7,  -13.9,  -13.0,  -10.2,  -10.3,  -12.8,   -7.4,   -5.9,   -5.5,   -2.8,   -1.8,   -1.4,   -1.1,   -0.6,    1.2,    3.0,    2.5,    3.2,    3.8,    4.0,    3.8,    3.5,    3.0,    2.7,    0.6,    0.1,    0.1,    0.7,    0.9,    0.5,    0.5,    0.4,    0.6,   -1.3,   -1.9,   -1.7,   -2.4,   -2.3,   -3.7,   -4.6,   -5.6,   -5.3,   -5.2,   -5.0,   -4.1,   -3.1,   -3.0,   -3.7,   -3.8,   -2.2,    2.1,  999.0,  999.0,  999.0,  999.0
2001/03/24 21:50,    5.2,   -0.5,   -3.4,   -5.1,   -4.9,   -5.4,   -7.6,   -5.0,   -5.9,   -7.9,   -7.3,   -7.2,   -6.4,   -4.6,   -2.8,   -1.5,   -1.1,   -0.4,    2.3,    3.6,    5.6,    7.2,    7.0,    7.3,    4.6,    6.1,    4.0,    3.4,    1.5,    1.4,    1.3,    2.4,    0.5,   -0.5,   -0.2,   -0.4,   -0.1,    2.2,    1.9,    3.0,    4.4,    3.9,    1.3,   -0.5,   -1.2,   -5.8,   -7.7,  999.0,   -1.0,    1.6,   -4.1,   -1.0,    1.4,    3.9,    5.8,    3.0,    4.9,    2.3
2001/03/24 22:00,  -13.6,   -1.5,   -1.5,   -5.1,   -8.6,   -8.4,  -10.3,   -9.5,   -9.1,   -6.9,   -9.7,   -8.6,   -7.1,   -4.4,   -4.8,   -3.6,    1.5,    3.9,    6.7,   11.9,    9.8,   10.9,   14.8,  999.0,   12.8,  999.0,  999.0,  999.0,  999.0,  999.0,  999.0,  999.0,  999.0,  999.0,   -4.6,  999.0,   -2.8,  999.0,  999.0,  999.0,   -0.7,   -1.1,   -1.0,  999.0,   -1.0,  999.0,   -1.0,   -0.6,   -0.8,  999.0,  999.0,   -0.5,    0.1,  999.0,  999.0,   -0.3,  999.0,   -1.1
2001/03/24 22:10,   -1.0,   -1.4,  999.0,   -2.9,   -3.5,   -4.6,   -4.6,   -4.0,   -3.9,   -4.5,   -6.6,   -6.5,   -5.6,   -4.5,   -3.7,   -4.1,   -4.1,  999.0,   -0.3,    2.1,    3.3,  999.0,  999.0,  999.0,  999.0,  999.0,  999.0,  999.0,  999.0,  999.0,  999.0,  999.0,   -2.8,  999.0,   -2.4,   -1.6,  999.0,   -1.6,   -0.6,   -0.8,   -0.8,   -1.2,  999.0,   -1.1,   -0.9,   -0.2,   -0.4,   -0.8,  999.0,  999.0,   -0.9,  999.0,  999.0,   -0.6,   -0.5,  999.0,  999.0,   -0.6
2001/03/24 22:20,   -2.9,  999.0,  999.0,  999.0,   -4.6,   -4.7,  999.0,   -3.5,   -3.9,   -4.7,   -5.5,   -5.9,   -6.0,   -5.5,   -4.5,   -4.5,   -3.7,  999.0,   -2.7,    0.3,    2.0,    4.0,    5.0,  999.0,  999.0,  999.0,  999.0,  999.0,  999.0,  999.0,  999.0,  999.0,  999.0,  999.0,  999.0,   -3.3,   -3.0,   -2.7,   -1.5,  999.0,   -0.8,  999.0,   -0.6,   -1.0,   -0.6,   -0.8,  999.0,   -1.0,  999.0,  999.0,  999.0,  999.0,   -1.2,   -1.0,   -0.8,  999.0,  999.0,  999.0
2001/03/24 22:30,   -3.8,  999.0,  999.0,  999.0,   -5.3,   -3.3,   -2.9,   -3.3,   -3.6,   -3.7,   -4.3,   -4.7,   -4.8,   -5.0,   -4.3,  999.0,  999.0,   -2.3,   -1.8,   -0.1,    0.4,    1.5,    1.6,  999.0,  999.0,  999.0,  999.0,  999.0,  999.0,  999.0,  999.0,  999.0,  999.0,  999.0,  999.0,   -1.3,   -0.5,   -0.8,   -0.3,   -0.5,   -1.5,  999.0,  999.0,   -0.6,   -0.5,   -0.7,   -0.8,  999.0,  999.0,  999.0,   -0.5,  999.0,   -0.8,   -0.7,   -0.8,   -0.9,   -0.6,   -0.1
2001/03/24 22:40,   -1.5,  999.0,  999.0,  999.0,  999.0,  999.0,  999.0,  999.0,   -2.7,   -2.7,   -2.5,   -3.2,   -3.8,   -3.7,   -4.1,  999.0,  999.0,  999.0,  999.0,  999.0,  999.0,  999.0,  999.0,  999.0,  999.0,  999.0,  999.0,  999.0,  999.0,  999.0,  999.0,  999.0,  999.0,  999.0,   -2.3,  999.0,   -0.9,  999.0,   -0.2,  999.0,   -0.8,   -0.8,   -0.7,  999.0,   -0.6,   -0.6,   -0.9,  999.0,   -0.4,   -0.7,   -0.8,   -1.1,   -1.2,   -0.8,   -0.7,   -1.0,   -0.8,   -0.5
2001/03/24 22:50,   -2.8,  999.0,  999.0,   -1.9,   -2.8,   -3.3,   -2.1,   -2.0,   -2.1,   -2.2,   -2.1,   -2.7,   -3.1,   -3.7,   -3.7,  999.0,  999.0,   -2.5,  999.0,  999.0,  999.0,    3.0,    3.6,  999.0,  999.0,  999.0,  999.0,  999.0,  999.0,   -3.0,   -7.3,    9.3,    4.6,   -1.8,   -3.0,   -1.9,  999.0,   -0.5,  999.0,   -0.9,  999.0,   -1.0,   -1.0,  999.0,   -0.8,   -1.3,   -0.8,  999.0,  999.0,  999.0,  999.0,   -0.7,   -0.5,   -0.5,   -0.1,  999.0,   -0.7,   -0.7
2001/03/24 23:00,    1.2,  999.0,  999.0,  999.0,   -2.5,   -2.9,   -2.2,   -2.0,   -1.7,   -1.5,   -1.3,   -2.1,   -3.0,   -2.4,   -3.3,   -6.1,  999.0,  999.0,  999.0,  999.0,  999.0,  999.0,  999.0,  999.0,  999.0,  999.0,  999.0,  999.0,  999.0,  999.0,  999.0,  999.0,   -2.6,   -0.8,   -1.3,   -0.7,    4.1,   -1.6,  999.0,   -1.3,   -0.9,   -0.5,  999.0,   -1.1,   -1.3,   -1.4,   -0.7,   -1.3,   -0.6,   -0.7,   -0.5,  999.0,   -0.4,   -1.1,   -0.7,   -1.0,   -0.5,  999.0
2001/03/24 23:10,   -2.0,   -8.2,  999.0,   -0.7,   -2.0,   -1.7,   -1.9,   -2.5,   -0.8,  999.0,   -1.1,   -1.6,   -2.2,   -2.9,   -3.1,  999.0,  999.0,  999.0,  999.0,  999.0,  999.0,  999.0,  999.0,  999.0,  999.0,  999.0,  999.0,  999.0,  999.0,   -7.0,   -7.2,  999.0,   -1.6,   -3.9,  999.0,  999.0,   -1.1,   -0.8,   -1.1,   -0.5,   -0.3,   -0.4,   -0.3,   -1.0,   -0.7,   -1.7,   -0.6,   -0.9,   -1.0,   -0.8,  999.0,   -1.0,   -0.8,   -1.4,   -1.2,   -0.7,   -0.5,   -0.5
2001/03/24 23:20,  999.0,    1.2,   -0.9,   -1.2,   -2.3,   -1.4,   -1.3,   -1.2,   -1.0,   -0.8,   -0.9,   -2.0,   -2.6,   -3.3,   -3.8,   -6.3,   -7.9,  999.0,  999.0,   -6.1,  999.0,  999.0,  999.0,  999.0,  999.0,  999.0,  999.0,  999.0,  -23.5,  999.0,  -19.9,  999.0,  -25.6,  -18.4,  -17.9,   -5.1,   -4.6,  999.0,   -3.1,  -12.3,  999.0,   -1.5,  -23.0,  -14.2,  -11.5,  -10.6,   -8.1,  -11.5,  -12.1,  -17.8,  999.0,    3.3,  -12.1,  -16.5,  -17.0,  -11.7,  -17.8,   -0.4
2001/03/24 23:30,  999.0,    3.3,   -0.3,   -1.3,   -2.1,   -6.1,   -4.2,   -5.6,   -5.8,   -2.2,   -2.8,  999.0,  -10.4,   -8.2,  -14.4,  -20.6,  -19.5,  999.0,  999.0,  -18.6,  -19.0,  999.0,  -20.4,  -18.9,  -19.2,  -19.1,  -20.2,  -21.0,  -21.6,  -21.7,  -21.9,  -22.6,  999.0,  999.0,  999.0,  999.0,  999.0,  999.0,  999.0,  999.0,  999.0,  999.0,  999.0,  999.0,  999.0,  999.0,  999.0,  999.0,  999.0,  999.0,  999.0,  999.0,  999.0,  999.0,  999.0,  999.0,  999.0,  999.0
2001/03/24 23:40,  999.0,   -6.3,   -6.3,   -6.1,  -10.2,   -9.6,   -9.1,   -7.0,   -7.2,   -9.3,  -19.8,  -10.6,  -20.4,  -20.2,  -20.6,  -21.0,  -19.0,  -17.1,  -13.3,  -12.1,   -7.3,   -5.6,   -2.3,   -0.7,   -0.4,   -1.9,   -3.2,   -4.2,   -5.5,   -6.2,   -6.3,   -6.3,   -6.3,   -6.7,   -7.4,   -7.7,   -8.0,   -8.5,   -8.5,   -9.2,   -9.9,   -8.7,   -5.8,   -4.1,  999.0,    4.0,    7.0,    6.5,    6.1,    5.9,    6.7,    8.1,    8.2,    8.1,    7.2,    6.4,    6.7,    7.7
2001/03/24 23:50,  999.0,   -0.6,   -2.6,   -3.7,   -1.8,   -3.6,   -2.9,   -2.0,   -2.0,   -2.3,   -1.5,   -1.1,   -1.5,   -1.8,   -2.1,   -1.6,   -1.0,   -0.8,   -0.7,   -1.5,   -2.9,   -3.2,   -1.9,   -0.9,   -1.1,   -2.4,   -4.3,   -5.4,   -6.5,   -7.2,   -7.9,   -8.1,   -7.6,   -7.6,   -7.8,   -7.9,   -8.1,   -8.3,   -8.1,   -9.0,   -9.9,  -10.7,   -8.1,   -0.8,    0.2,    1.9,    2.4,    1.6,    3.0,    3.7,    5.7,    6.2,    5.8,    5.9,    5.2,    4.7,    3.4,    6.9
